CW9566 Weather Reports


time (UTC)temp
C
wind
direction
speed
KPH
gust
KPH
rain 1hr
cm
rain 24hr
cm
rain mn
cm
humidity
%
barometer
mb
20260906060939 21 342 0.0 1.6 0.00 0.18 0.03 88 1013.2
20260906060834 21 342 0.0 3.2 0.00 0.18 0.03 88 1013.2
20260906060720 21 342 0.0 4.8 0.00 0.18 0.03 88 1013.3
20260906060632 21 343 0.0 4.8 0.00 0.18 0.03 87 1013.3
20260906060539 21 343 0.0 4.8 0.00 0.18 0.03 87 1013.3
20260906060426 21 343 0.0 4.8 0.00 0.18 0.03 88 1013.4
20260906060331 21 343 0.0 4.8 0.00 0.18 0.03 88 1013.4
20260906060242 21 343 0.0 4.8 0.00 0.18 0.03 87 1013.4
20260906060133 21 343 1.6 4.8 0.00 0.18 0.03 88 1013.5
20260906055938 21 343 1.6 4.8 0.00 0.18 0.03 87 1013.4
20260906055836 21 343 1.6 4.8 0.00 0.18 0.03 87 1013.5
20260906055724 21 343 1.6 4.8 0.00 0.18 0.03 87 1013.5
20260906055636 21 343 1.6 4.8 0.00 0.18 0.03 87 1013.5
20260906055536 21 343 1.6 4.8 0.00 0.18 0.03 87 1013.5
20260906055436 21 342 1.6 3.2 0.00 0.18 0.03 87 1013.6
20260906055327 21 343 1.6 3.2 0.00 0.18 0.03 87 1013.5
20260906055233 21 343 0.0 3.2 0.00 0.18 0.03 87 1013.5
20260906055129 21 342 0.0 3.2 0.00 0.18 0.03 87 1013.5
20260906055036 21 342 0.0 3.2 0.00 0.18 0.03 87 1013.5
20260906054929 22 342 0.0 3.2 0.00 0.18 0.03 87 1013.6
20260906054821 22 342 0.0 3.2 0.00 0.18 0.03 87 1013.6
20260906054740 22 343 0.0 3.2 0.00 0.18 0.03 87 1013.6
20260906054719 22 342 0.0 3.2 0.00 0.18 0.03 87 1013.7
20260906054548 22 342 0.0 3.2 0.00 0.18 0.03 87 1013.7
20260906054417 22 342 0.0 3.2 0.00 0.18 0.03 87 1013.8
20260906054328 22 342 0.0 4.8 0.00 0.18 0.03 87 1013.8
20260906054223 22 342 0.0 4.8 0.00 0.18 0.03 87 1013.8
20260906054137 22 342 1.6 4.8 0.00 0.18 0.03 87 1013.8
20260906054031 22 342 0.0 6.4 0.00 0.18 0.03 87 1013.8
20260906053920 22 341 0.0 6.4 0.00 0.18 0.03 87 1013.8
20260906053835 22 341 1.6 6.4 0.00 0.18 0.03 87 1013.8
20260906053736 22 341 1.6 6.4 0.00 0.18 0.03 87 1013.7
20260906053621 22 340 1.6 6.4 0.00 0.18 0.03 87 1013.8
20260906053524 22 340 1.6 6.4 0.00 0.18 0.03 87 1013.7
20260906053432 22 340 1.6 6.4 0.00 0.18 0.03 87 1013.8
20260906053336 22 340 1.6 6.4 0.00 0.18 0.03 87 1013.8
20260906053224 22 340 3.2 6.4 0.00 0.18 0.03 87 1013.8
20260906053134 22 339 3.2 6.4 0.00 0.18 0.03 87 1013.8
20260906052932 22 339 1.6 4.8 0.00 0.18 0.03 87 1013.8
20260906052820 22 284 1.6 4.8 0.00 0.18 0.03 87 1013.8
20260906052728 22 254 1.6 4.8 0.00 0.18 0.03 87 1013.9
20260906052640 22 254 1.6 4.8 0.00 0.18 0.03 87 1013.8
20260906052529 22 254 1.6 3.2 0.00 0.18 0.03 87 1013.8
20260906052422 22 254 1.6 3.2 0.00 0.18 0.03 87 1013.8
20260906052328 22 254 1.6 3.2 0.00 0.18 0.03 87 1013.9
20260906052230 22 254 0.0 3.2 0.00 0.18 0.03 87 1014.0
20260906052128 22 254 0.0 3.2 0.00 0.18 0.03 87 1014.0
20260906052034 22 254 0.0 0.0 0.00 0.18 0.03 87 1013.9
20260906051927 22 254 0.0 0.0 0.00 0.18 0.03 87 1014.0
20260906051822 22 254 0.0 0.0 0.00 0.18 0.03 87 1014.0
20260906051735 22 253 0.0 0.0 0.00 0.18 0.03 86 1014.0
20260906051647 22 254 0.0 1.6 0.00 0.18 0.03 86 1014.0
20260906051435 22 254 0.0 3.2 0.00 0.18 0.03 86 1014.0
20260906051323 22 254 0.0 4.8 0.00 0.18 0.03 86 1014.0
20260906051235 22 254 0.0 4.8 0.00 0.18 0.03 86 1014.0
20260906051117 22 254 0.0 4.8 0.00 0.18 0.03 86 1014.0
20260906051023 22 254 0.0 4.8 0.00 0.18 0.03 86 1014.0
20260906050925 22 254 0.0 4.8 0.03 0.18 0.03 86 1014.0
20260906050828 22 254 0.0 4.8 0.03 0.18 0.03 86 1014.1
20260906050741 22 254 0.0 4.8 0.03 0.18 0.03 86 1014.2
20260906050620 22 253 0.0 4.8 0.03 0.18 0.03 86 1014.2
20260906050529 22 254 1.6 4.8 0.03 0.18 0.03 86 1014.2
20260906050435 22 254 1.6 4.8 0.03 0.18 0.03 86 1014.2
20260906050331 22 253 0.0 4.8 0.03 0.18 0.03 86 1014.2
20260906050241 22 254 0.0 4.8 0.03 0.18 0.03 86 1014.2
20260906050226 22 254 0.0 4.8 0.03 0.18 0.03 86 1014.2
20260906050049 22 254 0.0 4.8 0.03 0.18 0.03 86 1014.2
20260906045926 22 254 0.0 4.8 0.03 0.18 0.03 86 1014.2
20260906045836 22 254 0.0 4.8 0.03 0.18 0.03 86 1014.2
20260906045725 22 254 0.0 4.8 0.03 0.18 0.03 86 1014.3
20260906045621 22 254 0.0 4.8 0.05 0.18 0.03 86 1014.3
20260906045543 22 254 1.6 4.8 0.05 0.18 0.03 86 1014.3
20260906045434 22 254 1.6 4.8 0.05 0.18 0.03 86 1014.3
20260906045323 22 252 0.0 3.2 0.05 0.18 0.03 86 1014.3
20260906045220 22 243 0.0 3.2 0.05 0.18 0.03 86 1014.2
20260906045140 22 242 0.0 3.2 0.05 0.18 0.03 86 1014.2
20260906045026 22 242 0.0 3.2 0.05 0.18 0.03 86 1014.1
20260906044930 22 242 0.0 3.2 0.08 0.18 0.03 86 1014.0
20260906044823 22 242 0.0 3.2 0.08 0.18 0.03 86 1014.0
20260906044721 22 244 0.0 3.2 0.08 0.18 0.03 86 1014.0
20260906044715 22 248 0.0 4.8 0.08 0.18 0.03 86 1014.0
20260906044625 22 249 0.0 4.8 0.08 0.18 0.03 86 1014.0
20260906044418 22 249 0.0 4.8 0.08 0.18 0.03 85 1014.2
20260906044323 22 249 0.0 4.8 0.08 0.18 0.03 86 1014.1
20260906044243 22 249 0.0 4.8 0.08 0.18 0.03 85 1014.1
20260906044140 22 249 0.0 4.8 0.08 0.18 0.03 85 1014.2
20260906044030 22 249 0.0 4.8 0.08 0.18 0.03 85 1014.1
20260906043934 22 249 0.0 4.8 0.08 0.18 0.03 85 1014.1
20260906043820 22 249 1.6 6.4 0.08 0.18 0.03 85 1014.0
20260906043736 22 249 3.2 6.4 0.08 0.18 0.03 85 1014.1
20260906043633 22 251 1.6 6.4 0.08 0.18 0.03 85 1014.1
20260906043523 22 252 0.0 6.4 0.08 0.18 0.03 85 1014.0
20260906043420 22 252 0.0 6.4 0.08 0.18 0.03 85 1014.0
20260906043332 22 252 0.0 6.4 0.08 0.18 0.03 85 1013.9
20260906043226 22 252 1.6 6.4 0.08 0.18 0.03 85 1013.9
20260906043152 22 252 3.2 6.4 0.08 0.18 0.03 85 1014.0
20260906043126 22 252 3.2 6.4 0.08 0.18 0.03 84 1014.0
20260906042928 22 257 4.8 6.4 0.08 0.18 0.03 84 1014.0
20260906042835 22 258 3.2 6.4 0.08 0.18 0.03 84 1014.0
20260906042730 22 261 3.2 6.4 0.08 0.18 0.03 84 1014.1
20260906042640 22 340 3.2 6.4 0.08 0.18 0.03 84 1014.0
20260906042531 22 340 3.2 6.4 0.08 0.18 0.03 84 1014.1
20260906042435 22 351 1.6 4.8 0.08 0.18 0.03 84 1014.0
20260906042340 22 355 1.6 3.2 0.08 0.18 0.03 84 1014.0
20260906042240 22 355 0.0 3.2 0.08 0.18 0.03 84 1014.0
20260906042126 22 355 0.0 4.8 0.08 0.18 0.03 84 1013.9
20260906042019 22 355 0.0 4.8 0.08 0.18 0.03 83 1013.9
20260906041926 22 355 0.0 4.8 0.08 0.18 0.03 83 1013.9
20260906041825 22 355 0.0 4.8 0.08 0.18 0.03 83 1013.8
20260906041732 22 355 0.0 4.8 0.08 0.18 0.03 83 1013.8
20260906041719 22 355 0.0 4.8 0.08 0.18 0.03 83 1013.7
20260906041632 23 355 0.0 4.8 0.08 0.18 0.03 83 1013.8
20260906041434 23 355 1.6 4.8 0.08 0.18 0.03 83 1013.8
20260906041319 23 355 1.6 6.4 0.08 0.18 0.03 83 1013.9
20260906041243 23 355 1.6 8.0 0.08 0.18 0.03 83 1013.9
20260906041140 23 350 3.2 8.0 0.08 0.18 0.03 83 1014.0
20260906041024 23 351 1.6 8.0 0.05 0.15 0.00 83 1014.0
20260906040927 23 355 1.6 8.0 0.05 0.15 0.00 82 1014.0
20260906040825 23 355 0.0 8.0 0.05 0.15 0.00 82 1014.0
20260906040739 23 355 1.6 8.0 0.05 0.15 0.00 82 1013.9
20260906040622 23 355 1.6 8.0 0.05 0.15 0.00 82 1014.0
20260906040517 23 355 3.2 8.0 0.05 0.15 0.00 82 1013.9
20260906040430 23 355 4.8 8.0 0.05 0.15 0.00 82 1014.0
20260906040337 23 355 4.8 8.0 0.05 0.15 0.00 82 1014.0
20260906040240 23 355 4.8 8.0 0.05 0.15 0.00 82 1014.0
20260906040144 23 75 3.2 6.4 0.05 0.15 0.00 82 1014.1
20260906040131 23 76 3.2 6.4 0.05 0.15 0.00 82 1014.0
20260906035944 23 78 3.2 6.4 0.05 0.15 0.15 81 1014.0
20260906035841 23 79 3.2 6.4 0.05 0.15 0.15 81 1014.0
20260906035734 23 80 1.6 6.4 0.03 0.10 0.10 81 1014.0
20260906035617 23 80 1.6 4.8 0.03 0.10 0.10 81 1014.0
20260906035541 23 81 1.6 4.8 0.03 0.10 0.10 81 1014.0
20260906035426 23 81 1.6 4.8 0.03 0.10 0.10 81 1014.0
20260906035334 23 81 1.6 4.8 0.03 0.10 0.10 81 1014.0
20260906035229 23 82 1.6 4.8 0.03 0.10 0.10 81 1014.0
20260906035126 23 88 1.6 4.8 0.03 0.10 0.10 81 1014.0
20260906035022 23 114 0.0 4.8 0.00 0.10 0.10 81 1014.1
20260906034940 23 170 0.0 4.8 0.00 0.10 0.10 81 1014.2
20260906034834 23 171 1.6 3.2 0.00 0.10 0.10 81 1014.2
20260906034741 23 171 0.0 3.2 0.00 0.10 0.10 81 1014.2
20260906034642 23 171 0.0 3.2 0.00 0.10 0.10 81 1014.2
20260906034631 23 171 0.0 3.2 0.00 0.10 0.10 81 1014.2
20260906034440 23 171 1.6 3.2 0.00 0.10 0.10 81 1014.3
20260906034326 23 171 1.6 3.2 0.00 0.10 0.10 81 1014.3
20260906034240 23 171 1.6 3.2 0.00 0.10 0.10 81 1014.3
20260906034142 23 171 0.0 3.2 0.00 0.10 0.10 81 1014.3
20260906034030 23 171 0.0 0.0 0.00 0.10 0.10 81 1014.4
20260906033927 23 171 0.0 0.0 0.00 0.10 0.10 81 1014.5
20260906033820 23 171 0.0 0.0 0.00 0.10 0.10 81 1014.5
20260906033741 23 171 0.0 0.0 0.00 0.10 0.10 81 1014.5
20260906033640 23 171 0.0 0.0 0.00 0.10 0.10 81 1014.5
20260906033526 23 171 0.0 0.0 0.00 0.10 0.10 81 1014.5
20260906033420 23 171 0.0 0.0 0.00 0.10 0.10 81 1014.4
20260906033331 23 171 0.0 3.2 0.00 0.10 0.10 81 1014.4
20260906033230 23 171 0.0 3.2 0.00 0.10 0.10 81 1014.4
20260906033134 23 171 0.0 4.8 0.00 0.10 0.10 81 1014.5
20260906032940 23 171 0.0 4.8 0.00 0.10 0.10 81 1014.5
20260906032817 23 171 0.0 4.8 0.00 0.10 0.10 81 1014.5
20260906032724 23 171 0.0 4.8 0.00 0.10 0.10 81 1014.5
20260906032640 23 171 0.0 4.8 0.00 0.10 0.10 81 1014.5
20260906032535 23 171 0.0 4.8 0.00 0.10 0.10 81 1014.5
20260906032437 23 171 1.6 4.8 0.00 0.10 0.10 81 1014.5
20260906032324 23 171 1.6 4.8 0.00 0.10 0.10 81 1014.4
20260906032219 23 171 1.6 4.8 0.00 0.10 0.10 81 1014.5
20260906032128 23 171 0.0 4.8 0.00 0.10 0.10 81 1014.5
20260906032035 23 171 0.0 3.2 0.00 0.10 0.10 81 1014.5
20260906031927 23 170 0.0 3.2 0.00 0.10 0.10 81 1014.6
20260906031825 23 170 0.0 3.2 0.00 0.10 0.10 81 1014.5
20260906031730 23 170 0.0 3.2 0.00 0.10 0.10 81 1014.5
20260906031718 23 170 0.0 3.2 0.00 0.10 0.10 81 1014.5
20260906031628 23 170 0.0 3.2 0.00 0.10 0.10 81 1014.5
20260906031428 23 170 0.0 3.2 0.00 0.10 0.10 81 1014.5
20260906031333 23 171 0.0 3.2 0.00 0.10 0.10 81 1014.5
20260906031219 23 171 0.0 3.2 0.00 0.10 0.10 81 1014.5
20260906031132 23 171 1.6 3.2 0.00 0.10 0.10 81 1014.6
20260906031026 23 171 0.0 3.2 0.00 0.10 0.10 81 1014.6
20260906030941 23 171 0.0 4.8 0.00 0.10 0.10 81 1014.6
20260906030841 23 171 0.0 4.8 0.00 0.10 0.10 81 1014.7
20260906030736 23 171 0.0 4.8 0.00 0.10 0.10 81 1014.7
20260906030625 23 170 0.0 4.8 0.00 0.10 0.10 81 1014.7
20260906030539 23 170 0.0 4.8 0.00 0.10 0.10 81 1014.8
20260906030435 23 170 0.0 4.8 0.00 0.10 0.10 81 1014.8
20260906030323 23 170 0.0 4.8 0.00 0.10 0.10 81 1014.7
20260906030246 23 171 1.6 9.7 0.00 0.10 0.10 81 1014.7
20260906030127 23 171 1.6 11.3 0.00 0.10 0.10 81 1014.7
20260906025937 23 171 1.6 11.3 0.00 0.10 0.10 81 1014.7
20260906025824 23 171 1.6 11.3 0.00 0.10 0.10 81 1014.7
20260906025727 23 171 1.6 11.3 0.00 0.10 0.10 81 1014.7
20260906025640 23 171 1.6 11.3 0.00 0.10 0.10 81 1014.7
20260906025526 23 171 1.6 11.3 0.00 0.10 0.10 81 1014.7
20260906025423 23 171 3.2 11.3 0.00 0.10 0.10 81 1014.6
20260906025332 23 171 6.4 11.3 0.00 0.10 0.10 80 1014.6
20260906025219 23 173 8.0 11.3 0.00 0.10 0.10 80 1014.5
20260906025136 23 175 8.0 11.3 0.00 0.10 0.10 80 1014.5
20260906025041 23 163 6.4 11.3 0.00 0.10 0.10 80 1014.5
20260906024930 23 166 4.8 9.7 0.00 0.10 0.10 80 1014.5
20260906024830 23 175 3.2 8.0 0.00 0.10 0.10 80 1014.5
20260906024741 23 182 4.8 8.0 0.00 0.10 0.10 79 1014.5
20260906024713 23 189 4.8 8.0 0.00 0.10 0.10 79 1014.4
20260906024705 23 243 4.8 8.0 0.00 0.10 0.10 79 1014.4
20260906024435 24 245 4.8 8.0 0.00 0.10 0.10 79 1014.4
20260906024317 24 254 4.8 8.0 0.00 0.10 0.10 79 1014.4
20260906024236 24 249 4.8 8.0 0.00 0.10 0.10 79 1014.4
20260906024140 24 246 4.8 8.0 0.00 0.10 0.10 78 1014.4
20260906024026 24 246 4.8 6.4 0.00 0.10 0.10 78 1014.4
20260906023940 24 232 4.8 6.4 0.00 0.10 0.10 78 1014.4
20260906023837 24 197 4.8 9.7 0.00 0.10 0.10 78 1014.4
20260906023735 24 175 3.2 9.7 0.00 0.10 0.10 78 1014.3
20260906023632 24 175 3.2 11.3 0.00 0.10 0.10 78 1014.3
20260906023547 24 175 3.2 11.3 0.00 0.10 0.10 78 1014.2
20260906023416 24 175 4.8 11.3 0.00 0.10 0.10 78 1014.2
20260906023331 24 178 3.2 11.3 0.00 0.10 0.10 78 1014.2
20260906023253 24 178 3.2 11.3 0.00 0.10 0.10 77 1014.1
20260906023148 24 176 4.8 11.3 0.00 0.10 0.10 77 1014.2
20260906022923 24 163 8.0 11.3 0.00 0.10 0.10 77 1014.1
20260906022835 24 166 8.0 11.3 0.00 0.10 0.10 77 1014.1
20260906022728 24 166 4.8 11.3 0.00 0.10 0.10 77 1014.0
20260906022636 24 185 3.2 6.4 0.00 0.10 0.10 77 1014.0
20260906022549 24 208 3.2 6.4 0.00 0.10 0.10 77 1014.0
20260906022436 24 223 1.6 6.4 0.00 0.10 0.10 77 1014.0
20260906022337 24 238 0.0 6.4 0.00 0.10 0.10 77 1014.0
20260906022221 24 238 0.0 6.4 0.00 0.10 0.10 77 1014.0
20260906022122 24 238 0.0 6.4 0.00 0.10 0.10 77 1014.0
20260906022043 24 238 0.0 6.4 0.00 0.10 0.10 77 1014.1
20260906021936 24 238 0.0 6.4 0.00 0.10 0.10 77 1014.0
20260906021840 24 238 1.6 6.4 0.00 0.10 0.10 77 1014.0
20260906021734 24 238 1.6 6.4 0.00 0.10 0.10 77 1014.0
20260906021636 24 240 4.8 6.4 0.00 0.10 0.10 76 1013.8
20260906021421 24 241 3.2 6.4 0.00 0.10 0.10 76 1013.8
20260906021321 24 244 3.2 6.4 0.00 0.10 0.10 76 1013.9
20260906021229 24 244 3.2 6.4 0.00 0.10 0.10 76 1013.9
20260906021133 24 244 1.6 6.4 0.00 0.10 0.10 76 1013.9
20260906021038 25 246 0.0 3.2 0.00 0.10 0.10 75 1013.8
20260906020927 25 246 0.0 1.6 0.00 0.10 0.10 75 1013.9
20260906020830 25 246 0.0 1.6 0.00 0.10 0.10 75 1013.8
20260906020739 25 246 0.0 1.6 0.00 0.10 0.10 75 1013.8
20260906020642 25 246 0.0 1.6 0.00 0.10 0.10 75 1013.9
20260906020531 25 246 0.0 1.6 0.00 0.10 0.10 75 1013.8
20260906020420 25 246 0.0 3.2 0.00 0.10 0.10 75 1013.8
20260906020324 25 246 0.0 3.2 0.00 0.10 0.10 75 1013.7
20260906020301 25 246 0.0 3.2 0.00 0.10 0.10 75 1013.7
20260906020237 25 246 0.0 3.2 0.00 0.10 0.10 75 1013.7
20260906020139 25 246 0.0 3.2 0.00 0.10 0.10 75 1013.7
20260906015929 25 246 0.0 4.8 0.00 0.10 0.10 75 1013.7
20260906015824 25 246 0.0 4.8 0.00 0.10 0.10 75 1013.7
20260906015728 25 246 0.0 4.8 0.00 0.10 0.10 75 1013.7
20260906015619 25 246 0.0 4.8 0.00 0.10 0.10 75 1013.7
20260906015539 25 246 0.0 4.8 0.00 0.10 0.10 75 1013.7
20260906015432 25 246 0.0 4.8 0.00 0.10 0.10 75 1013.8
20260906015325 25 246 1.6 6.4 0.00 0.10 0.10 74 1013.8
20260906015240 25 246 1.6 6.4 0.00 0.10 0.10 74 1013.7
20260906015119 25 246 1.6 6.4 0.00 0.10 0.10 74 1013.8
20260906015039 25 246 1.6 6.4 0.00 0.10 0.10 74 1013.8
20260906014926 25 246 3.2 6.4 0.00 0.10 0.10 74 1013.8
20260906014824 25 246 3.2 6.4 0.00 0.10 0.10 74 1013.8
20260906014734 25 246 3.2 6.4 0.00 0.10 0.10 74 1013.8
20260906014720 25 246 3.2 6.4 0.00 0.10 0.10 74 1013.8
20260906014625 25 247 3.2 6.4 0.00 0.10 0.10 74 1013.8
20260906014437 25 247 3.2 6.4 0.00 0.10 0.10 74 1013.8
20260906014323 25 248 4.8 6.4 0.00 0.10 0.10 74 1013.8
20260906014241 25 249 3.2 6.4 0.00 0.10 0.10 73 1013.8
20260906014119 25 250 3.2 6.4 0.00 0.10 0.10 73 1013.8
20260906014037 25 250 3.2 8.0 0.00 0.10 0.10 73 1013.8
20260906013928 25 250 3.2 8.0 0.00 0.10 0.10 73 1013.8
20260906013831 25 251 3.2 8.0 0.00 0.10 0.10 73 1013.8
20260906013730 25 251 3.2 8.0 0.00 0.10 0.10 73 1013.8
20260906013634 25 251 4.8 8.0 0.00 0.10 0.10 73 1013.8
20260906013520 25 252 3.2 8.0 0.00 0.10 0.10 73 1013.8
20260906013429 25 252 3.2 8.0 0.00 0.10 0.10 73 1013.8
20260906013345 25 253 3.2 8.0 0.00 0.10 0.10 73 1013.8
20260906013230 25 253 4.8 8.0 0.00 0.10 0.10 73 1013.9
20260906013159 25 253 6.4 8.0 0.00 0.10 0.10 72 1013.8
20260906012940 25 266 3.2 9.7 0.00 0.10 0.10 72 1013.8
20260906012825 25 360 3.2 4.8 0.00 0.10 0.10 72 1013.8
20260906012730 25 360 3.2 4.8 0.00 0.10 0.10 72 1013.8
20260906012632 25 5 1.6 4.8 0.00 0.10 0.10 72 1013.8
20260906012543 25 5 0.0 3.2 0.00 0.10 0.10 72 1013.8
20260906012441 25 5 0.0 3.2 0.00 0.10 0.10 71 1013.7
20260906012344 25 5 0.0 3.2 0.00 0.10 0.10 71 1013.7
20260906012255 25 5 0.0 3.2 0.00 0.10 0.10 71 1013.7
20260906012135 25 5 0.0 3.2 0.00 0.10 0.10 71 1013.7
20260906012040 25 5 0.0 3.2 0.00 0.10 0.10 71 1013.6
20260906011942 25 5 0.0 3.2 0.00 0.10 0.10 71 1013.6
20260906011835 25 5 1.6 3.2 0.00 0.10 0.10 71 1013.5
20260906011745 25 5 0.0 4.8 0.00 0.10 0.10 71 1013.4
20260906011652 25 5 0.0 6.4 0.00 0.10 0.10 71 1013.4
20260906011418 25 5 0.0 6.4 0.00 0.10 0.10 71 1013.4
20260906011343 25 5 1.6 6.4 0.00 0.10 0.10 71 1013.4
20260906011221 25 5 1.6 6.4 0.00 0.10 0.10 71 1013.3
20260906011129 25 5 0.0 6.4 0.00 0.10 0.10 71 1013.3
20260906011036 25 5 0.0 6.4 0.00 0.10 0.10 71 1013.3
20260906010928 25 5 1.6 6.4 0.00 0.10 0.10 71 1013.4
20260906010833 25 5 3.2 6.4 0.00 0.10 0.10 71 1013.5
20260906010732 25 5 1.6 6.4 0.00 0.10 0.10 71 1013.5
20260906010635 25 360 0.0 6.4 0.00 0.10 0.10 71 1013.5
20260906010532 26 355 0.0 0.0 0.00 0.10 0.10 71 1013.5
20260906010417 26 355 0.0 0.0 0.00 0.10 0.10 71 1013.5
20260906010325 26 355 0.0 0.0 0.00 0.10 0.10 71 1013.5
20260906010251 26 355 0.0 0.0 0.00 0.10 0.10 71 1013.5
20260906010140 26 355 0.0 0.0 0.00 0.10 0.10 71 1013.4
20260906005933 26 355 0.0 0.0 0.00 0.10 0.10 71 1013.4
20260906005838 26 355 0.0 0.0 0.00 0.10 0.10 71 1013.4
20260906005730 26 355 0.0 0.0 0.00 0.10 0.10 70 1013.4
20260906005640 26 355 0.0 0.0 0.00 0.10 0.10 70 1013.4
20260906005536 26 355 0.0 0.0 0.00 0.10 0.10 70 1013.4
20260906005430 26 355 0.0 0.0 0.00 0.10 0.10 70 1013.4
20260906005339 26 355 0.0 0.0 0.00 0.10 0.10 70 1013.4
20260906005242 26 355 0.0 0.0 0.00 0.10 0.10 70 1013.4
20260906005144 26 355 0.0 0.0 0.00 0.10 0.10 70 1013.4
20260906005043 26 355 0.0 0.0 0.00 0.10 0.10 70 1013.4
20260906004932 26 355 0.0 0.0 0.00 0.10 0.10 70 1013.3
20260906004834 26 355 0.0 0.0 0.00 0.10 0.10 70 1013.3
20260906004718 26 355 0.0 0.0 0.00 0.10 0.10 70 1013.4
20260906004624 26 355 0.0 3.2 0.00 0.10 0.10 70 1013.4
20260906004425 26 355 0.0 3.2 0.00 0.10 0.10 70 1013.4
20260906004328 26 355 0.0 3.2 0.00 0.10 0.10 70 1013.4
20260906004226 26 355 0.0 3.2 0.00 0.10 0.10 70 1013.4
20260906004125 26 355 0.0 3.2 0.00 0.10 0.10 70 1013.4
20260906004026 26 355 0.0 3.2 0.00 0.10 0.10 70 1013.3
20260906003921 26 355 0.0 3.2 0.00 0.10 0.10 70 1013.3
20260906003819 26 355 0.0 3.2 0.00 0.10 0.10 70 1013.3
20260906003742 26 355 0.0 3.2 0.00 0.10 0.10 70 1013.3
20260906003636 26 355 1.6 3.2 0.00 0.10 0.10 70 1013.3
20260906003534 26 355 1.6 3.2 0.00 0.10 0.10 69 1013.3
20260906003436 26 355 0.0 3.2 0.00 0.10 0.10 69 1013.2
20260906003331 26 355 0.0 3.2 0.00 0.10 0.10 69 1013.2
20260906003238 26 355 0.0 6.4 0.00 0.10 0.10 69 1013.2
20260906003134 26 355 0.0 6.4 0.00 0.10 0.10 69 1013.2
20260906002933 26 355 0.0 6.4 0.00 0.10 0.10 69 1013.2
20260906002840 26 355 0.0 6.4 0.00 0.10 0.10 69 1013.2
20260906002723 26 355 0.0 6.4 0.00 0.10 0.10 69 1013.1
20260906002627 26 355 0.0 8.0 0.00 0.10 0.10 69 1013.1
20260906002529 26 355 1.6 9.7 0.00 0.10 0.10 69 1013.2
20260906002435 26 355 3.2 9.7 0.00 0.10 0.10 69 1013.1
20260906002321 26 355 1.6 9.7 0.00 0.10 0.10 69 1013.2
20260906002236 26 355 1.6 9.7 0.00 0.10 0.10 69 1013.2
20260906002151 26 355 3.2 9.7 0.00 0.10 0.10 69 1013.2
20260906002027 26 355 3.2 9.7 0.00 0.10 0.10 69 1013.2
20260906001937 26 355 3.2 9.7 0.00 0.10 0.10 69 1013.2
20260906001818 26 355 4.8 9.7 0.00 0.10 0.10 69 1013.2
20260906001735 26 355 6.4 9.7 0.00 0.10 0.10 69 1013.2
20260906001702 26 360 4.8 9.7 0.00 0.10 0.10 68 1013.2
20260906001629 26 355 4.8 12.9 0.00 0.10 0.10 68 1013.1
20260906001439 26 355 4.8 12.9 0.00 0.10 0.10 68 1013.1
20260906001324 26 355 4.8 12.9 0.00 0.10 0.10 68 1013.0
20260906001238 26 355 4.8 12.9 0.00 0.10 0.10 68 1013.0
20260906001135 26 350 4.8 12.9 0.00 0.10 0.10 68 1012.9
20260906001036 26 13 4.8 12.9 0.00 0.10 0.10 68 1012.9
20260906000942 26 360 4.8 12.9 0.00 0.10 0.10 68 1012.9
20260906000842 26 355 6.4 12.9 0.00 0.10 0.10 68 1013.0
20260906000717 26 349 6.4 12.9 0.00 0.10 0.10 68 1013.0
20260906000617 26 355 8.0 12.9 0.00 0.10 0.10 67 1013.0
20260906000537 26 336 6.4 12.9 0.00 0.10 0.10 67 1013.1
20260906000434 27 341 4.8 12.9 0.00 0.10 0.10 67 1013.1
20260906000344 27 360 4.8 12.9 0.00 0.10 0.10 67 1013.1
20260906000256 27 11 4.8 12.9 0.00 0.10 0.10 67 1013.1
20260906000154 27 339 6.4 12.9 0.00 0.10 0.10 67 1013.2
20260905235919 27 351 6.4 12.9 0.00 0.10 0.10 66 1013.1
20260905235832 27 337 6.4 12.9 0.00 0.10 0.10 66 1013.1
20260905235745 27 348 4.8 12.9 0.00 0.10 0.10 66 1013.1
20260905235629 27 25 6.4 12.9 0.00 0.10 0.10 66 1013.1
20260905235525 27 360 6.4 12.9 0.00 0.10 0.10 66 1013.0
20260905235443 27 5 4.8 12.9 0.00 0.10 0.10 66 1013.0
20260905235330 27 18 4.8 12.9 0.00 0.10 0.10 66 1013.1
20260905235227 27 5 4.8 12.9 0.00 0.10 0.10 66 1012.9
20260905235128 27 32 6.4 12.9 0.00 0.10 0.10 66 1013.1
20260905235024 27 36 6.4 12.9 0.00 0.10 0.10 65 1013.1
20260905234935 27 26 6.4 12.9 0.00 0.10 0.10 65 1013.1
20260905234830 27 10 4.8 12.9 0.00 0.10 0.10 65 1013.1
20260905234748 27 5 6.4 12.9 0.00 0.10 0.10 65 1013.1
20260905234638 27 346 6.4 12.9 0.00 0.10 0.10 64 1013.1
20260905234437 27 360 4.8 12.9 0.00 0.10 0.10 64 1013.1
20260905234342 27 331 3.2 8.0 0.00 0.10 0.10 64 1013.1
20260905234229 27 5 3.2 8.0 0.00 0.10 0.10 64 1013.1
20260905234126 27 5 4.8 8.0 0.00 0.10 0.10 64 1013.1
20260905234019 27 11 4.8 8.0 0.00 0.10 0.10 64 1013.1
20260905233933 28 338 4.8 8.0 0.00 0.10 0.10 64 1013.1
20260905233827 28 5 4.8 8.0 0.00 0.10 0.10 64 1013.0
20260905233736 28 5 3.2 8.0 0.00 0.10 0.10 64 1013.1
20260905233624 28 19 3.2 8.0 0.00 0.10 0.10 64 1012.9
20260905233539 28 360 3.2 8.0 0.00 0.10 0.10 64 1013.0
20260905233419 28 355 4.8 8.0 0.00 0.10 0.10 64 1013.0
20260905233336 28 355 6.4 8.0 0.00 0.10 0.10 64 1013.0
20260905233227 28 351 3.2 8.0 0.00 0.10 0.10 63 1012.9
20260905233049 28 5 3.2 8.0 0.00 0.10 0.10 63 1012.9
20260905232955 28 15 3.2 8.0 0.00 0.10 0.10 63 1012.8
20260905232834 28 5 3.2 6.4 0.00 0.10 0.10 63 1012.8
20260905232727 28 5 3.2 6.4 0.00 0.10 0.10 63 1012.7
20260905232636 28 9 3.2 6.4 0.00 0.10 0.10 63 1012.7
20260905232519 28 12 3.2 6.4 0.00 0.10 0.10 63 1012.7
20260905232418 28 360 1.6 6.4 0.00 0.10 0.10 63 1012.7
20260905232344 28 360 0.0 4.8 0.00 0.10 0.10 63 1012.8
20260905232225 28 284 0.0 0.0 0.00 0.10 0.10 63 1012.7
20260905232117 28 284 0.0 0.0 0.00 0.10 0.10 63 1012.7
20260905232030 28 284 0.0 0.0 0.00 0.10 0.10 63 1012.8
20260905232002 28 285 0.0 0.0 0.00 0.10 0.10 63 1012.8
20260905231820 28 288 0.0 0.0 0.00 0.10 0.10 63 1012.7
20260905231742 28 341 0.0 0.0 0.00 0.10 0.10 63 1012.8
20260905231700 28 355 0.0 0.0 0.00 0.10 0.10 63 1012.8
20260905231631 28 355 0.0 0.0 0.00 0.10 0.10 63 1012.8
20260905231437 28 355 0.0 0.0 0.00 0.10 0.10 62 1012.8
20260905231326 28 355 0.0 0.0 0.00 0.10 0.10 62 1012.8
20260905231237 28 327 0.0 0.0 0.00 0.10 0.10 62 1012.7
20260905231128 28 15 0.0 0.0 0.00 0.10 0.10 62 1012.5
20260905231025 28 360 0.0 0.0 0.00 0.10 0.10 62 1012.6
20260905230921 28 355 0.0 0.0 0.00 0.10 0.10 62 1012.6
20260905230820 28 9 0.0 0.0 0.00 0.10 0.10 62 1012.6
20260905230732 28 350 0.0 0.0 0.00 0.10 0.10 62 1012.6
20260905230635 28 347 0.0 0.0 0.00 0.10 0.10 62 1012.7
20260905230542 28 348 0.0 0.0 0.00 0.10 0.10 62 1012.7
20260905230429 28 355 0.0 0.0 0.00 0.10 0.10 62 1012.7
20260905230325 28 350 0.0 0.0 0.00 0.10 0.10 62 1012.7
20260905230309 28 355 0.0 0.0 0.00 0.10 0.10 61 1012.7
20260905230157 28 11 0.0 0.0 0.00 0.10 0.10 61 1012.6
20260905225942 28 360 0.0 0.0 0.00 0.10 0.10 61 1012.5
20260905225842 28 350 0.0 0.0 0.00 0.10 0.10 61 1012.4
20260905225727 28 346 0.0 0.0 0.00 0.10 0.10 61 1012.5
20260905225619 28 360 0.0 0.0 0.00 0.10 0.10 61 1012.4
20260905225534 28 344 0.0 0.0 0.00 0.10 0.10 61 1012.4
20260905225426 28 350 0.0 0.0 0.00 0.10 0.10 61 1012.5
20260905225319 28 348 0.0 0.0 0.00 0.10 0.10 61 1012.4
20260905225234 28 355 0.0 0.0 0.00 0.10 0.10 61 1012.5
20260905225119 28 355 0.0 0.0 0.00 0.10 0.10 61 1012.5
20260905225015 28 5 0.0 0.0 0.00 0.10 0.10 60 1012.7
20260905224940 28 18 0.0 0.0 0.00 0.10 0.10 60 1012.6
20260905224836 28 352 0.0 0.0 0.00 0.10 0.10 60 1012.7
20260905224758 28 360 0.0 0.0 0.00 0.10 0.10 60 1012.7
20260905224639 29 352 0.0 0.0 0.00 0.10 0.10 60 1012.7
20260905224442 29 355 0.0 0.0 0.00 0.10 0.10 60 1012.8
20260905224327 29 9 0.0 0.0 0.00 0.10 0.10 60 1012.9
20260905224236 29 60 0.0 0.0 0.00 0.10 0.10 60 1012.9
20260905224126 29 30 0.0 0.0 0.00 0.10 0.10 60 1012.9
20260905224028 29 28 0.0 0.0 0.00 0.10 0.10 60 1012.9
20260905223917 29 360 0.0 0.0 0.00 0.10 0.10 59 1012.9
20260905223842 29 360 0.0 0.0 0.00 0.10 0.10 59 1012.9
20260905223818 29 360 0.0 0.0 0.00 0.10 0.10 59 1012.9
20260905223636 29 58 0.0 0.0 0.00 0.10 0.10 59 1012.9
20260905223526 29 355 0.0 0.0 0.00 0.10 0.10 60 1012.9
20260905223425 29 5 0.0 0.0 0.00 0.10 0.10 59 1013.0
20260905223322 29 355 0.0 0.0 0.00 0.10 0.10 59 1013.1
20260905223303 29 360 0.0 0.0 0.00 0.10 0.10 59 1013.1
20260905223150 29 360 0.0 0.0 0.00 0.10 0.10 59 1013.0
20260905222923 29 11 0.0 0.0 0.00 0.10 0.10 59 1013.1
20260905222826 29 9 0.0 0.0 0.00 0.10 0.10 59 1013.1
20260905222736 29 22 0.0 0.0 0.00 0.10 0.10 59 1013.1
20260905222632 29 34 0.0 0.0 0.00 0.10 0.10 60 1013.2
20260905222526 29 34 0.0 0.0 0.00 0.10 0.10 59 1013.1
20260905222436 29 49 0.0 0.0 0.00 0.10 0.10 59 1013.1
20260905222343 29 20 0.0 0.0 0.00 0.10 0.10 60 1013.1
20260905222243 29 9 0.0 0.0 0.00 0.10 0.10 60 1013.1
20260905222137 29 28 0.0 0.0 0.00 0.10 0.10 59 1013.1
20260905222033 29 30 0.0 0.0 0.00 0.10 0.10 59 1013.0
20260905221926 29 52 0.0 0.0 0.00 0.10 0.10 60 1013.1
20260905221824 29 40 0.0 0.0 0.00 0.10 0.10 60 1013.1
20260905221735 29 35 0.0 0.0 0.00 0.10 0.10 60 1013.0
20260905221659 29 342 0.0 0.0 0.00 0.10 0.10 59 1013.0
20260905221632 29 340 0.0 0.0 0.00 0.10 0.10 60 1013.1
20260905221442 29 13 0.0 0.0 0.00 0.10 0.10 60 1012.9
20260905221336 29 360 0.0 0.0 0.00 0.10 0.10 59 1013.0
20260905221232 29 355 0.0 0.0 0.00 0.10 0.10 59 1012.9
20260905221129 29 360 0.0 0.0 0.00 0.10 0.10 59 1012.9
20260905221036 29 5 0.0 0.0 0.00 0.10 0.10 59 1012.9
20260905220935 29 30 0.0 0.0 0.00 0.10 0.10 59 1012.9
20260905220827 29 38 0.0 0.0 0.00 0.10 0.10 59 1012.9
20260905220743 29 13 0.0 0.0 0.00 0.10 0.10 59 1012.9
20260905220641 29 24 0.0 0.0 0.00 0.10 0.10 59 1012.9
20260905220531 29 30 0.0 0.0 0.00 0.10 0.10 59 1012.9
20260905220433 29 355 0.0 0.0 0.00 0.10 0.10 59 1012.8
20260905220332 29 345 0.0 0.0 0.00 0.10 0.10 59 1012.9
20260905220258 29 339 0.0 0.0 0.00 0.10 0.10 59 1013.0
20260905220241 29 5 0.0 0.0 0.00 0.10 0.10 59 1013.0
20260905220132 29 51 0.0 0.0 0.00 0.10 0.10 59 1013.0
20260905215931 29 55 0.0 0.0 0.00 0.10 0.10 59 1013.0
20260905215827 29 56 0.0 0.0 0.00 0.10 0.10 59 1013.0
20260905215736 29 67 0.0 0.0 0.00 0.10 0.10 59 1013.0
20260905215640 29 299 0.0 0.0 0.00 0.10 0.10 59 1013.1
20260905215527 29 287 0.0 0.0 0.00 0.10 0.10 59 1013.1
20260905215422 29 287 0.0 0.0 0.00 0.10 0.10 59 1013.1
20260905215329 28 324 0.0 0.0 0.00 0.10 0.10 60 1013.2
20260905215231 28 325 0.0 0.0 0.00 0.10 0.10 60 1013.2
20260905215122 28 325 0.0 0.0 0.00 0.10 0.10 60 1013.2
20260905215042 28 355 0.0 0.0 0.00 0.10 0.10 59 1013.1
20260905214939 28 355 0.0 0.0 0.00 0.10 0.10 59 1013.2
20260905214836 28 350 0.0 0.0 0.00 0.10 0.10 59 1013.2
20260905214750 28 352 0.0 0.0 0.00 0.10 0.10 59 1013.2
20260905214631 28 360 0.0 0.0 0.00 0.10 0.10 59 1013.2
20260905214420 28 5 0.0 0.0 0.00 0.10 0.10 59 1013.2
20260905214337 28 10 0.0 0.0 0.00 0.10 0.10 59 1013.3
20260905214226 29 296 0.0 0.0 0.00 0.10 0.10 59 1013.3
20260905214132 29 300 0.0 0.0 0.00 0.10 0.10 59 1013.3
20260905214035 29 285 0.0 0.0 0.00 0.10 0.10 59 1013.3
20260905213924 29 276 0.0 0.0 0.00 0.10 0.10 58 1013.2
20260905213824 29 277 0.0 0.0 0.00 0.10 0.10 58 1013.3
20260905213728 29 294 0.0 0.0 0.00 0.10 0.10 58 1013.3
20260905213634 29 288 0.0 0.0 0.00 0.10 0.10 58 1013.4
20260905213520 29 290 0.0 0.0 0.00 0.10 0.10 58 1013.4
20260905213417 29 290 0.0 0.0 0.00 0.10 0.10 58 1013.3
20260905213320 29 331 0.0 0.0 0.00 0.10 0.10 57 1013.4
20260905213245 29 350 0.0 0.0 0.00 0.10 0.10 57 1013.4
20260905213220 29 351 0.0 0.0 0.00 0.10 0.10 57 1013.5
20260905213144 29 352 0.0 0.0 0.00 0.10 0.10 57 1013.5
20260905212920 29 355 0.0 0.0 0.00 0.10 0.10 57 1013.6
20260905212842 30 351 0.0 0.0 0.00 0.10 0.10 57 1013.6
20260905212735 30 5 0.0 0.0 0.00 0.10 0.10 56 1013.5
20260905212636 30 360 0.0 0.0 0.00 0.10 0.10 56 1013.6
20260905212535 30 350 0.0 0.0 0.00 0.10 0.10 56 1013.6
20260905212443 30 355 0.0 0.0 0.00 0.10 0.10 56 1013.7
20260905212321 30 352 0.0 0.0 0.00 0.10 0.10 56 1013.7
20260905212233 30 350 0.0 0.0 0.00 0.10 0.10 56 1013.7
20260905212137 30 347 0.0 0.0 0.00 0.10 0.10 57 1013.8
20260905212028 30 348 0.0 0.0 0.00 0.10 0.10 57 1013.8
20260905211943 30 26 0.0 0.0 0.00 0.10 0.10 57 1013.8
20260905211824 29 30 0.0 0.0 0.00 0.10 0.10 57 1013.8
20260905211742 29 49 0.0 0.0 0.00 0.10 0.10 57 1013.8
20260905211642 29 32 0.0 0.0 0.00 0.10 0.10 58 1013.8
20260905211425 29 31 0.0 0.0 0.00 0.10 0.10 58 1013.8
20260905211337 29 66 0.0 0.0 0.00 0.10 0.10 58 1013.9
20260905211242 29 57 0.0 0.0 0.00 0.10 0.10 58 1013.9
20260905211138 29 51 0.0 0.0 0.00 0.10 0.10 58 1013.9
20260905211018 29 44 0.0 0.0 0.00 0.10 0.10 58 1014.0
20260905210901 29 19 0.0 0.0 0.00 0.10 0.10 58 1014.0
20260905210742 28 35 0.0 0.0 0.00 0.10 0.10 58 1014.0
20260905210635 28 51 0.0 0.0 0.00 0.10 0.10 58 1014.0
20260905210542 28 24 0.0 0.0 0.00 0.10 0.10 58 1014.0
20260905210442 28 347 0.0 0.0 0.00 0.10 0.10 58 1014.0
20260905210342 28 13 0.0 0.0 0.00 0.10 0.10 58 1014.1
20260905210240 28 9 0.0 0.0 0.00 0.10 0.10 58 1014.1
20260905210218 28 355 0.0 0.0 0.00 0.10 0.10 57 1014.2
20260905210132 29 352 0.0 0.0 0.00 0.10 0.10 57 1014.1
20260905205938 29 12 0.0 0.0 0.00 0.10 0.10 57 1014.1
20260905205834 29 342 0.0 0.0 0.00 0.10 0.10 57 1014.2
20260905205739 29 27 0.0 0.0 0.00 0.10 0.10 57 1014.2
20260905205624 29 350 0.0 0.0 0.00 0.10 0.10 57 1014.2
20260905205550 29 49 0.0 0.0 0.00 0.10 0.10 57 1014.0
20260905205442 29 22 0.0 0.0 0.00 0.10 0.10 57 1014.0
20260905205343 29 360 0.0 0.0 0.00 0.10 0.10 57 1014.0
20260905205242 29 349 0.0 0.0 0.00 0.10 0.10 57 1014.0
20260905205146 29 355 0.0 0.0 0.00 0.10 0.10 57 1014.1
20260905205035 29 345 0.0 0.0 0.00 0.10 0.10 57 1014.2
20260905204944 29 34 0.0 0.0 0.00 0.10 0.10 57 1014.2
20260905204818 29 59 0.0 0.0 0.00 0.10 0.10 57 1014.2
20260905204757 29 36 0.0 0.0 0.00 0.10 0.10 57 1014.2
20260905204642 29 36 0.0 0.0 0.00 0.10 0.10 57 1014.2
20260905204420 29 40 0.0 4.8 0.00 0.10 0.10 57 1014.1
20260905204334 29 360 0.0 4.8 0.00 0.10 0.10 57 1014.1
20260905204242 29 52 0.0 4.8 0.00 0.10 0.10 58 1014.1
20260905204126 29 19 0.0 4.8 0.00 0.10 0.10 58 1014.0
20260905204024 28 5 0.0 6.4 0.00 0.10 0.10 58 1014.1
20260905203943 28 12 0.0 8.0 0.00 0.10 0.10 58 1014.0
20260905203833 28 11 0.0 8.0 0.00 0.10 0.10 58 1014.1
20260905203735 28 32 0.0 9.7 0.00 0.10 0.10 58 1014.1
20260905203635 28 16 0.0 9.7 0.00 0.10 0.10 58 1014.2
20260905203524 28 5 0.0 9.7 0.00 0.10 0.10 59 1014.2
20260905203424 28 52 0.0 12.9 0.00 0.10 0.10 59 1014.2
20260905203324 28 59 1.6 12.9 0.00 0.10 0.10 59 1014.2
20260905203240 28 59 3.2 12.9 0.00 0.10 0.10 59 1014.2
20260905203131 28 59 4.8 12.9 0.00 0.10 0.10 59 1014.2
20260905203127 28 24 4.8 12.9 0.00 0.10 0.10 60 1014.2
20260905202935 28 25 3.2 12.9 0.00 0.10 0.10 60 1014.2
20260905202847 28 23 3.2 12.9 0.00 0.10 0.10 60 1014.2
20260905202732 28 32 3.2 12.9 0.00 0.10 0.10 60 1014.1
20260905202642 27 38 4.8 12.9 0.00 0.10 0.10 61 1014.1
20260905202521 27 40 4.8 12.9 0.00 0.10 0.10 61 1014.1
20260905202425 27 42 4.8 9.7 0.00 0.10 0.10 61 1014.2
20260905202344 27 33 4.8 9.7 0.00 0.10 0.10 61 1014.2
20260905202243 27 13 3.2 8.0 0.00 0.10 0.10 61 1014.3
20260905202138 27 306 3.2 8.0 0.00 0.10 0.10 62 1014.2
20260905202024 27 49 3.2 8.0 0.00 0.10 0.10 62 1014.2
20260905201927 27 51 4.8 8.0 0.00 0.10 0.10 63 1014.2
20260905201827 27 31 4.8 8.0 0.00 0.10 0.10 63 1014.1
20260905201736 27 28 4.8 8.0 0.00 0.10 0.10 63 1014.2
20260905201633 26 42 3.2 8.0 0.00 0.10 0.10 64 1014.3
20260905201432 26 51 3.2 8.0 0.00 0.10 0.10 63 1014.3
20260905201323 26 9 3.2 8.0 0.00 0.10 0.10 63 1014.3
20260905201220 26 5 3.2 8.0 0.00 0.10 0.10 64 1014.4
20260905201136 26 5 3.2 9.7 0.00 0.10 0.10 64 1014.3
20260905201025 26 5 3.2 9.7 0.00 0.10 0.10 64 1014.4
20260905200936 26 5 3.2 9.7 0.00 0.10 0.10 64 1014.3
20260905200828 26 5 6.4 9.7 0.00 0.10 0.10 64 1014.2
20260905200736 26 278 4.8 9.7 0.00 0.10 0.10 64 1014.2
20260905200642 26 281 4.8 9.7 0.00 0.10 0.10 65 1014.4
20260905200518 26 346 3.2 9.7 0.00 0.10 0.10 65 1014.4
20260905200442 25 346 4.8 9.7 0.00 0.10 0.10 65 1014.4
20260905200318 25 348 4.8 9.7 0.00 0.10 0.10 64 1014.3
20260905200223 25 333 3.2 9.7 0.00 0.10 0.10 66 1014.5
20260905200129 25 333 3.2 12.9 0.00 0.10 0.10 65 1014.6
20260905195925 25 338 3.2 12.9 0.00 0.10 0.10 65 1014.8
20260905195817 25 346 3.2 12.9 0.00 0.10 0.10 67 1014.7
20260905195630 25 249 1.6 12.9 0.00 0.10 0.10 68 1014.9
20260905195531 25 283 3.2 12.9 0.00 0.10 0.10 69 1014.9
20260905195424 25 284 3.2 12.9 0.00 0.10 0.10 69 1014.9
20260905195330 25 295 1.6 12.9 0.00 0.10 0.10 70 1014.9
20260905195240 25 279 4.8 12.9 0.00 0.10 0.10 70 1014.9
20260905195134 25 256 4.8 12.9 0.00 0.10 0.10 70 1014.8
20260905195025 24 273 3.2 12.9 0.00 0.10 0.10 71 1014.9
20260905194936 24 273 3.2 12.9 0.00 0.10 0.10 71 1014.8
20260905194837 24 355 1.6 12.9 0.00 0.10 0.10 72 1014.8
20260905194745 24 360 1.6 12.9 0.00 0.10 0.10 72 1014.8
20260905194724 24 360 3.2 12.9 0.00 0.10 0.10 72 1014.7
20260905194636 24 360 4.8 14.5 0.00 0.10 0.10 72 1014.6
20260905194420 24 346 4.8 14.5 0.00 0.10 0.10 72 1014.6
20260905194333 24 350 6.4 14.5 0.00 0.10 0.10 72 1014.5
20260905194230 24 355 6.4 14.5 0.00 0.10 0.10 72 1014.5
20260905194129 24 337 6.4 14.5 0.00 0.10 0.10 72 1014.5
20260905194032 24 344 6.4 14.5 0.00 0.10 0.10 72 1014.5
20260905193935 24 350 8.0 14.5 0.00 0.10 0.10 72 1014.4
20260905193844 24 355 8.0 14.5 0.00 0.10 0.10 71 1014.4
20260905193738 24 334 9.7 16.1 0.00 0.10 0.10 71 1014.4
20260905193624 24 337 8.0 16.1 0.00 0.10 0.10 71 1014.4
20260905193544 24 360 6.4 16.1 0.00 0.10 0.10 71 1014.4
20260905193421 24 360 8.0 16.1 0.00 0.10 0.10 71 1014.5
20260905193335 24 346 8.0 17.7 0.00 0.10 0.10 71 1014.5
20260905193233 24 333 8.0 17.7 0.00 0.10 0.10 71 1014.4
20260905193104 24 28 8.0 17.7 0.00 0.10 0.10 71 1014.4
20260905192930 24 344 9.7 19.3 0.00 0.10 0.10 71 1014.4
20260905192825 24 337 6.4 19.3 0.00 0.10 0.10 71 1014.3
20260905192725 24 28 3.2 19.3 0.00 0.10 0.10 71 1014.5
20260905192646 24 37 6.4 19.3 0.00 0.10 0.10 70 1014.3
20260905192540 24 355 9.7 19.3 0.00 0.10 0.10 70 1014.4
20260905192431 24 347 6.4 19.3 0.00 0.10 0.10 70 1014.4
20260905192336 24 340 4.8 19.3 0.00 0.10 0.10 71 1014.5
20260905192228 24 319 8.0 19.3 0.00 0.10 0.10 71 1014.5
20260905192136 24 288 9.7 19.3 0.00 0.10 0.10 71 1014.5
20260905192033 24 270 6.4 19.3 0.00 0.10 0.10 71 1014.5
20260905191934 24 272 3.2 11.3 0.00 0.10 0.10 71 1014.5
20260905191834 24 342 3.2 9.7 0.00 0.10 0.10 71 1014.5
20260905191755 24 345 3.2 9.7 0.00 0.10 0.10 71 1014.5
20260905191715 24 355 4.8 9.7 0.00 0.10 0.10 71 1014.4
20260905191637 24 5 4.8 9.7 0.00 0.10 0.10 71 1014.4
20260905191442 24 355 4.8 9.7 0.00 0.10 0.10 71 1014.4
20260905191327 24 329 4.8 9.7 0.00 0.10 0.10 71 1014.5
20260905191230 24 349 6.4 9.7 0.00 0.10 0.10 71 1014.5
20260905191135 24 345 4.8 9.7 0.00 0.10 0.10 71 1014.4
20260905191021 23 346 6.4 9.7 0.00 0.10 0.10 71 1014.4
20260905190923 24 334 6.4 9.7 0.00 0.10 0.10 70 1014.4
20260905190836 23 338 4.8 8.0 0.00 0.10 0.10 70 1014.4
20260905190737 24 350 4.8 8.0 0.00 0.10 0.10 70 1014.3
20260905190646 24 9 3.2 8.0 0.00 0.10 0.10 70 1014.5
20260905190522 23 9 3.2 8.0 0.00 0.10 0.10 71 1014.5
20260905190435 23 31 3.2 8.0 0.00 0.10 0.10 70 1014.5
20260905190334 23 355 4.8 8.0 0.00 0.10 0.10 70 1014.5
20260905190258 23 348 4.8 8.0 0.00 0.10 0.10 71 1014.6
20260905190158 23 351 3.2 8.0 0.00 0.10 0.10 71 1014.8
20260905185944 23 5 3.2 8.0 0.00 0.10 0.10 71 1014.9
20260905185835 23 345 4.8 8.0 0.00 0.10 0.10 70 1015.0
20260905185738 23 345 4.8 8.0 0.00 0.10 0.10 71 1015.0
20260905185632 23 339 3.2 8.0 0.00 0.10 0.10 71 1015.0
20260905185534 23 336 3.2 8.0 0.00 0.10 0.10 71 1015.1
20260905185439 23 288 1.6 8.0 0.00 0.10 0.10 71 1015.1
20260905185342 23 288 0.0 8.0 0.00 0.10 0.10 72 1015.1
20260905185236 23 283 0.0 8.0 0.00 0.10 0.10 71 1015.0
20260905185136 23 283 1.6 8.0 0.00 0.10 0.10 71 1015.1
20260905185030 23 283 1.6 8.0 0.05 0.10 0.10 71 1015.1
20260905184927 23 283 3.2 8.0 0.10 0.10 0.10 72 1015.0
20260905184843 23 284 3.2 8.0 0.10 0.10 0.10 72 1015.1
20260905184746 23 284 3.2 8.0 0.10 0.10 0.10 71 1015.1
20260905184717 23 284 4.8 8.0 0.10 0.10 0.10 72 1015.2
20260905184617 23 305 4.8 8.0 0.10 0.10 0.10 72 1015.3
20260905184427 23 288 4.8 9.7 0.10 0.10 0.10 73 1015.4
20260905184324 23 271 3.2 9.7 0.10 0.10 0.10 73 1015.4
20260905184241 23 269 1.6 6.4 0.10 0.10 0.10 74 1015.5
20260905184124 23 173 1.6 8.0 0.10 0.10 0.10 74 1015.4
20260905184035 23 173 1.6 8.0 0.10 0.10 0.10 74 1015.5
20260905183927 23 173 0.0 8.0 0.10 0.10 0.10 74 1015.5
20260905183835 23 173 0.0 8.0 0.10 0.10 0.10 74 1015.5
20260905183727 23 173 0.0 8.0 0.10 0.10 0.10 74 1015.5
20260905183618 23 173 0.0 8.0 0.10 0.10 0.10 74 1015.5
20260905183533 23 173 0.0 11.3 0.10 0.10 0.10 73 1015.5
20260905183443 23 173 0.0 11.3 0.10 0.10 0.10 73 1015.5
20260905183325 23 173 3.2 11.3 0.10 0.10 0.10 73 1015.4
20260905183229 23 173 6.4 12.9 0.10 0.10 0.10 73 1015.3
20260905183151 23 167 6.4 12.9 0.10 0.10 0.10 73 1015.2
20260905183108 23 165 4.8 12.9 0.10 0.10 0.10 73 1015.1
20260905182935 24 148 3.2 12.9 0.10 0.10 0.10 73 1015.1
20260905182848 24 101 6.4 12.9 0.10 0.10 0.10 72 1015.1
20260905182736 24 101 6.4 12.9 0.10 0.10 0.10 72 1015.0
20260905182645 24 96 6.4 12.9 0.10 0.10 0.10 73 1015.0
20260905182546 24 165 6.4 12.9 0.10 0.10 0.10 72 1014.9
20260905182418 24 165 6.4 12.9 0.10 0.10 0.10 72 1014.8
20260905182342 24 155 6.4 12.9 0.10 0.10 0.10 71 1014.7
20260905182229 25 154 1.6 8.0 0.10 0.10 0.10 70 1014.7
20260905182143 24 331 0.0 9.7 0.10 0.10 0.10 68 1014.6
20260905182036 24 333 0.0 12.9 0.10 0.10 0.10 67 1014.6
20260905181926 24 333 0.0 14.5 0.10 0.10 0.10 67 1014.7
20260905181823 24 333 3.2 14.5 0.10 0.10 0.10 66 1014.7
20260905181730 24 333 3.2 14.5 0.10 0.10 0.10 67 1014.7
20260905181718 25 327 3.2 14.5 0.10 0.10 0.10 67 1014.8
20260905181602 24 327 1.6 14.5 0.10 0.10 0.10 66 1014.7
20260905181427 25 328 1.6 22.5 0.10 0.10 0.10 66 1014.7
20260905181328 25 324 4.8 22.5 0.10 0.10 0.10 66 1014.7
20260905181217 25 324 6.4 22.5 0.10 0.10 0.10 66 1014.7
20260905181118 25 333 6.4 22.5 0.10 0.10 0.10 67 1014.8
20260905181036 25 360 4.8 22.5 0.10 0.10 0.10 67 1014.8
20260905180933 25 342 4.8 22.5 0.10 0.10 0.10 67 1014.9
20260905180826 25 333 6.4 22.5 0.10 0.10 0.10 67 1014.9
20260905180718 25 355 8.0 22.5 0.10 0.10 0.10 66 1015.0
20260905180637 25 330 8.0 24.1 0.10 0.10 0.10 66 1015.1
20260905180524 25 24 9.7 24.1 0.10 0.10 0.10 66 1015.2
20260905180435 25 5 8.0 24.1 0.10 0.10 0.10 67 1015.2
20260905180334 25 5 8.0 24.1 0.10 0.10 0.10 67 1015.2
20260905180248 25 31 8.0 24.1 0.10 0.10 0.10 67 1015.3
20260905180136 25 5 11.3 24.1 0.10 0.10 0.10 67 1015.5
20260905175922 25 360 12.9 24.1 0.10 0.10 0.10 66 1015.5
20260905175841 25 21 12.9 24.1 0.10 0.10 0.10 66 1015.6
20260905175736 26 45 9.7 22.5 0.10 0.10 0.10 68 1015.5
20260905175636 26 45 4.8 14.5 0.10 0.10 0.10 68 1015.4
20260905175536 26 355 0.0 9.7 0.10 0.10 0.10 67 1015.5
20260905175442 26 306 0.0 0.0 0.10 0.10 0.10 65 1015.1
20260905175324 26 38 0.0 0.0 0.10 0.10 0.10 65 1015.1
20260905175228 27 347 0.0 0.0 0.10 0.10 0.10 64 1015.0
20260905175133 27 63 0.0 0.0 0.05 0.05 0.05 63 1014.9
20260905175040 28 30 0.0 0.0 0.00 0.00 0.00 58 1014.9
20260905174926 28 36 0.0 0.0 0.00 0.00 0.00 56 1015.1
20260905174843 28 33 0.0 0.0 0.00 0.00 0.00 54 1015.2
20260905174724 29 64 0.0 0.0 0.00 0.00 0.00 53 1015.0
20260905174718 29 307 0.0 0.0 0.00 0.00 0.00 52 1014.9
20260905174623 30 12 0.0 0.0 0.00 0.00 0.00 51 1014.8
20260905174420 30 50 0.0 0.0 0.00 0.00 0.00 50 1014.6
20260905174329 30 360 0.0 0.0 0.00 0.00 0.00 50 1014.7
20260905174228 31 10 0.0 0.0 0.00 0.00 0.00 50 1014.9
20260905174146 31 338 0.0 0.0 0.00 0.00 0.00 51 1015.0
20260905174025 31 336 0.0 0.0 0.00 0.00 0.00 53 1015.2
20260905173931 31 309 0.0 0.0 0.00 0.00 0.00 55 1015.4
20260905173824 31 27 0.0 0.0 0.00 0.00 0.00 57 1015.2
20260905173741 31 23 0.0 0.0 0.00 0.00 0.00 57 1015.2
20260905173641 31 330 0.0 0.0 0.00 0.00 0.00 57 1015.1
20260905173525 31 339 0.0 0.0 0.00 0.00 0.00 57 1015.1
20260905173433 31 321 0.0 0.0 0.00 0.00 0.00 57 1015.1
20260905173327 31 327 0.0 0.0 0.00 0.00 0.00 57 1015.2
20260905173241 31 319 0.0 0.0 0.00 0.00 0.00 57 1015.4
20260905173219 31 333 0.0 0.0 0.00 0.00 0.00 57 1015.3
20260905173118 31 336 0.0 0.0 0.00 0.00 0.00 57 1015.4
20260905172926 31 342 0.0 0.0 0.00 0.00 0.00 57 1015.4
20260905172834 30 324 0.0 0.0 0.00 0.00 0.00 57 1015.4
20260905172724 30 324 0.0 0.0 0.00 0.00 0.00 57 1015.3
20260905172642 30 324 0.0 0.0 0.00 0.00 0.00 57 1015.3
20260905172547 30 360 0.0 0.0 0.00 0.00 0.00 57 1015.2
20260905172423 30 340 0.0 0.0 0.00 0.00 0.00 57 1015.2
20260905172325 30 348 0.0 0.0 0.00 0.00 0.00 57 1015.3
20260905172229 30 12 0.0 0.0 0.00 0.00 0.00 57 1015.3
20260905172136 30 324 0.0 0.0 0.00 0.00 0.00 57 1015.2
20260905172028 30 287 0.0 0.0 0.00 0.00 0.00 57 1015.2
20260905171920 31 5 0.0 0.0 0.00 0.00 0.00 57 1015.2
20260905171824 31 5 0.0 0.0 0.00 0.00 0.00 56 1015.2
20260905171742 31 317 0.0 0.0 0.00 0.00 0.00 57 1015.3
20260905171642 31 312 0.0 0.0 0.00 0.00 0.00 57 1015.4
20260905171636 31 326 0.0 0.0 0.00 0.00 0.00 57 1015.5
20260905171427 31 259 0.0 0.0 0.00 0.00 0.00 57 1015.5
20260905171325 31 257 0.0 0.0 0.00 0.00 0.00 57 1015.5
20260905171226 31 302 0.0 0.0 0.00 0.00 0.00 57 1015.6
20260905171142 31 302 0.0 0.0 0.00 0.00 0.00 56 1015.7
20260905171037 31 281 0.0 0.0 0.00 0.00 0.00 56 1015.8
20260905170924 31 304 0.0 0.0 0.00 0.00 0.00 56 1015.6
20260905170831 31 273 0.0 0.0 0.00 0.00 0.00 56 1015.5
20260905170742 31 278 0.0 0.0 0.00 0.00 0.00 56 1015.5
20260905170619 31 277 0.0 0.0 0.00 0.00 0.00 56 1015.5
20260905170539 31 261 0.0 0.0 0.00 0.00 0.00 57 1015.6
20260905170441 30 258 0.0 0.0 0.00 0.00 0.00 57 1015.8
20260905170337 30 308 0.0 0.0 0.00 0.00 0.00 57 1015.8
20260905170236 30 288 0.0 0.0 0.00 0.00 0.00 57 1016.0
20260905170141 30 274 0.0 0.0 0.00 0.00 0.00 58 1016.2
20260905170113 30 284 0.0 0.0 0.00 0.00 0.00 58 1016.1
20260905165925 30 293 0.0 0.0 0.00 0.00 0.00 58 1016.1
20260905165829 30 295 0.0 0.0 0.00 0.00 0.00 58 1016.0
20260905165742 30 332 0.0 0.0 0.00 0.00 0.00 58 1015.8
20260905165625 30 337 0.0 0.0 0.00 0.00 0.00 58 1015.8
20260905165547 30 323 0.0 0.0 0.00 0.00 0.00 58 1015.7
20260905165424 30 350 0.0 0.0 0.00 0.00 0.00 58 1015.6
20260905165328 30 343 0.0 0.0 0.00 0.00 0.00 58 1015.8
20260905165218 30 349 0.0 0.0 0.00 0.00 0.00 59 1015.6
20260905165138 30 331 0.0 0.0 0.00 0.00 0.00 58 1015.5
20260905165053 30 334 0.0 0.0 0.00 0.00 0.00 58 1015.4
20260905164933 30 339 0.0 0.0 0.00 0.00 0.00 58 1015.3
20260905164836 30 355 0.0 0.0 0.00 0.00 0.00 58 1015.4
20260905164731 30 355 0.0 0.0 0.00 0.00 0.00 57 1015.3
20260905164718 30 320 0.0 0.0 0.00 0.00 0.00 57 1015.3
20260905164559 30 343 0.0 0.0 0.00 0.00 0.00 57 1015.2
20260905164430 30 314 0.0 0.0 0.00 0.00 0.00 57 1015.2
20260905164329 30 360 0.0 0.0 0.00 0.00 0.00 57 1015.2
20260905164222 30 348 0.0 0.0 0.00 0.00 0.00 57 1015.3
20260905164131 30 355 0.0 0.0 0.00 0.00 0.00 58 1015.3
20260905164030 30 338 0.0 0.0 0.00 0.00 0.00 57 1015.2
20260905163927 30 5 0.0 0.0 0.00 0.00 0.00 57 1015.1
20260905163836 30 59 0.0 0.0 0.00 0.00 0.00 57 1015.1
20260905163729 30 333 0.0 0.0 0.00 0.00 0.00 57 1015.2
20260905163627 30 340 0.0 0.0 0.00 0.00 0.00 57 1015.3
20260905163518 30 5 0.0 0.0 0.00 0.00 0.00 57 1015.5
20260905163442 30 331 0.0 0.0 0.00 0.00 0.00 57 1015.6
20260905163346 30 69 0.0 0.0 0.00 0.00 0.00 57 1015.7
20260905163229 30 301 0.0 0.0 0.00 0.00 0.00 57 1015.7
20260905163149 30 360 0.0 0.0 0.00 0.00 0.00 58 1015.8
20260905163128 30 342 0.0 0.0 0.00 0.00 0.00 58 1015.9
20260905162931 30 338 0.0 0.0 0.00 0.00 0.00 57 1015.9
20260905162848 30 315 0.0 0.0 0.00 0.00 0.00 58 1016.0
20260905162738 30 15 0.0 0.0 0.00 0.00 0.00 57 1016.0
20260905162619 30 16 0.0 0.0 0.00 0.00 0.00 58 1016.0
20260905162529 30 344 0.0 0.0 0.00 0.00 0.00 58 1016.0
20260905162437 30 321 0.0 0.0 0.00 0.00 0.00 59 1016.1
20260905162342 30 360 0.0 0.0 0.00 0.00 0.00 59 1016.2
20260905162225 30 348 0.0 0.0 0.00 0.00 0.00 59 1016.1
20260905162127 30 34 0.0 0.0 0.00 0.00 0.00 59 1016.1
20260905162042 30 42 0.0 0.0 0.00 0.00 0.00 59 1016.1
20260905161936 30 342 0.0 0.0 0.00 0.00 0.00 60 1015.9
20260905161820 30 335 0.0 0.0 0.00 0.00 0.00 61 1016.0
20260905161741 30 344 0.0 0.0 0.00 0.00 0.00 61 1016.0
20260905161645 30 330 0.0 0.0 0.00 0.00 0.00 61 1016.1
20260905161603 30 336 0.0 0.0 0.00 0.00 0.00 61 1016.3
20260905161424 30 325 0.0 0.0 0.00 0.00 0.00 61 1016.2
20260905161325 30 267 0.0 0.0 0.00 0.00 0.00 62 1016.2
20260905161225 30 271 0.0 0.0 0.00 0.00 0.00 62 1016.2
20260905161145 29 346 0.0 0.0 0.00 0.00 0.00 62 1016.1
20260905161021 29 344 0.0 0.0 0.00 0.00 0.00 62 1016.1
20260905160930 29 342 0.0 0.0 0.00 0.00 0.00 63 1016.0
20260905160822 29 344 0.0 0.0 0.00 0.00 0.00 63 1015.9
20260905160744 29 336 0.0 0.0 0.00 0.00 0.00 62 1016.1
20260905160630 29 333 0.0 0.0 0.00 0.00 0.00 62 1016.0
20260905160521 29 334 0.0 0.0 0.00 0.00 0.00 61 1016.0
20260905160430 29 331 0.0 0.0 0.00 0.00 0.00 62 1016.0
20260905160322 29 17 0.0 0.0 0.00 0.00 0.00 62 1016.1
20260905160245 29 334 0.0 0.0 0.00 0.00 0.00 62 1016.1
20260905160138 29 344 0.0 0.0 0.00 0.00 0.00 62 1016.2
20260905155936 29 355 0.0 0.0 0.00 0.00 0.00 64 1016.4
20260905155826 29 335 0.0 0.0 0.00 0.00 0.00 64 1016.4
20260905155729 29 346 0.0 0.0 0.00 0.00 0.00 64 1016.3
20260905155625 29 333 0.0 0.0 0.00 0.00 0.00 63 1016.2
20260905155529 29 355 0.0 0.0 0.00 0.00 0.00 64 1016.2
20260905155436 29 348 0.0 0.0 0.00 0.00 0.00 64 1016.3
20260905155328 29 337 0.0 0.0 0.00 0.00 0.00 64 1016.2
20260905155247 29 343 0.0 0.0 0.00 0.00 0.00 64 1016.2
20260905155130 29 355 0.0 0.0 0.00 0.00 0.00 64 1016.2
20260905155028 29 10 0.0 0.0 0.00 0.00 0.00 64 1016.4
20260905154936 29 340 0.0 0.0 0.00 0.00 0.00 64 1016.4
20260905154836 29 47 0.0 0.0 0.00 0.00 0.00 64 1016.3
20260905154721 28 24 0.0 0.0 0.00 0.00 0.00 64 1016.3
20260905154632 28 24 0.0 0.0 0.00 0.00 0.00 63 1016.2
20260905154623 28 338 0.0 0.0 0.00 0.00 0.00 64 1016.2
20260905154444 28 341 0.0 0.0 0.00 0.00 0.00 65 1016.3
20260905154333 28 355 0.0 0.0 0.00 0.00 0.00 64 1016.2
20260905154219 28 344 0.0 0.0 0.00 0.00 0.00 64 1016.2
20260905154126 28 338 0.0 0.0 0.00 0.00 0.00 64 1016.3
20260905154024 28 315 0.0 0.0 0.00 0.00 0.00 65 1016.3
20260905153935 28 328 0.0 0.0 0.00 0.00 0.00 65 1016.3
20260905153830 28 355 0.0 0.0 0.00 0.00 0.00 65 1016.3
20260905153742 28 338 0.0 0.0 0.00 0.00 0.00 65 1016.3
20260905153637 28 313 0.0 0.0 0.00 0.00 0.00 65 1016.3
20260905153522 28 344 0.0 0.0 0.00 0.00 0.00 65 1016.3
20260905153446 28 338 0.0 0.0 0.00 0.00 0.00 65 1016.3
20260905153348 28 345 0.0 0.0 0.00 0.00 0.00 65 1016.3
20260905153219 28 335 0.0 0.0 0.00 0.00 0.00 65 1016.3
20260905153217 28 302 0.0 0.0 0.00 0.00 0.00 65 1016.2
20260905153122 28 349 0.0 0.0 0.00 0.00 0.00 65 1016.2
20260905152945 28 321 0.0 0.0 0.00 0.00 0.00 65 1016.3
20260905152824 28 5 0.0 0.0 0.00 0.00 0.00 66 1016.3
20260905152730 28 319 0.0 0.0 0.00 0.00 0.00 66 1016.2
20260905152628 28 321 0.0 0.0 0.00 0.00 0.00 66 1016.2
20260905152524 28 328 0.0 0.0 0.00 0.00 0.00 66 1016.2
20260905152437 28 341 0.0 0.0 0.00 0.00 0.00 66 1016.1
20260905152334 28 314 0.0 0.0 0.00 0.00 0.00 66 1016.1
20260905152236 28 5 0.0 0.0 0.00 0.00 0.00 66 1016.0
20260905152121 28 344 0.0 0.0 0.00 0.00 0.00 66 1016.1
20260905152031 28 310 0.0 0.0 0.00 0.00 0.00 66 1016.2
20260905151930 28 340 0.0 0.0 0.00 0.00 0.00 66 1016.2
20260905151819 28 226 0.0 0.0 0.00 0.00 0.00 66 1016.1
20260905151742 28 273 0.0 0.0 0.00 0.00 0.00 67 1016.1
20260905151648 28 281 0.0 0.0 0.00 0.00 0.00 66 1016.1
20260905151625 28 323 0.0 0.0 0.00 0.00 0.00 67 1016.1
20260905151425 28 334 0.0 0.0 0.00 0.00 0.00 67 1016.1
20260905151347 28 342 0.0 0.0 0.00 0.00 0.00 68 1016.2
20260905151237 28 275 0.0 0.0 0.00 0.00 0.00 68 1016.2
20260905151141 28 268 0.0 0.0 0.00 0.00 0.00 68 1016.3
20260905151022 28 283 0.0 0.0 0.00 0.00 0.00 68 1016.3
20260905150929 28 273 0.0 0.0 0.00 0.00 0.00 68 1016.3
20260905150824 28 270 0.0 0.0 0.00 0.00 0.00 68 1016.3
20260905150720 28 293 0.0 0.0 0.00 0.00 0.00 68 1016.2
20260905150620 28 333 0.0 0.0 0.00 0.00 0.00 68 1016.2
20260905150523 28 352 0.0 0.0 0.00 0.00 0.00 69 1016.2
20260905150424 28 343 0.0 0.0 0.00 0.00 0.00 69 1016.3
20260905150324 28 355 0.0 0.0 0.00 0.00 0.00 69 1016.2
20260905150236 28 360 0.0 0.0 0.00 0.00 0.00 69 1016.3
20260905150137 28 309 0.0 0.0 0.00 0.00 0.00 69 1016.2
20260905150121 28 317 0.0 0.0 0.00 0.00 0.00 69 1016.2
20260905145917 28 318 0.0 0.0 0.00 0.00 0.00 69 1016.1
20260905145736 28 329 0.0 0.0 0.00 0.00 0.00 69 1016.0
20260905145638 28 337 0.0 0.0 0.00 0.00 0.00 69 1016.0
20260905145532 28 325 0.0 0.0 0.00 0.00 0.00 70 1016.2
20260905145417 27 290 0.0 0.0 0.00 0.00 0.00 71 1016.3
20260905145335 27 283 0.0 0.0 0.00 0.00 0.00 71 1016.4
20260905145231 27 350 0.0 0.0 0.00 0.00 0.00 72 1016.3
20260905145147 27 352 0.0 0.0 0.00 0.00 0.00 72 1016.3
20260905145041 27 348 0.0 0.0 0.00 0.00 0.00 73 1016.3
20260905144925 27 341 0.0 0.0 0.00 0.00 0.00 72 1016.2
20260905144831 27 316 0.0 0.0 0.00 0.00 0.00 72 1016.2
20260905144733 27 316 0.0 0.0 0.00 0.00 0.00 72 1016.1
20260905144650 27 317 0.0 0.0 0.00 0.00 0.00 73 1016.1
20260905144628 27 346 0.0 0.0 0.00 0.00 0.00 73 1016.1
20260905144425 26 31 0.0 0.0 0.00 0.00 0.00 73 1016.1
20260905144337 26 336 0.0 0.0 0.00 0.00 0.00 73 1016.0
20260905144230 26 355 0.0 0.0 0.00 0.00 0.00 73 1016.0
20260905144125 26 337 0.0 0.0 0.00 0.00 0.00 73 1016.0
20260905144040 26 327 0.0 0.0 0.00 0.00 0.00 73 1016.0
20260905143923 26 328 0.0 0.0 0.00 0.00 0.00 74 1016.0
20260905143821 26 350 0.0 0.0 0.00 0.00 0.00 74 1016.0
20260905143731 26 327 0.0 0.0 0.00 0.00 0.00 73 1016.0
20260905143641 26 346 0.0 0.0 0.00 0.00 0.00 73 1016.0
20260905143522 26 327 0.0 0.0 0.00 0.00 0.00 73 1016.0
20260905143448 26 355 0.0 0.0 0.00 0.00 0.00 73 1016.0
20260905143322 26 342 0.0 0.0 0.00 0.00 0.00 73 1016.1
20260905143245 26 9 0.0 0.0 0.00 0.00 0.00 73 1016.0
20260905143148 26 333 0.0 0.0 0.00 0.00 0.00 73 1016.1
20260905143121 26 339 0.0 0.0 0.00 0.00 0.00 73 1016.2
20260905142945 26 329 0.0 0.0 0.00 0.00 0.00 73 1016.1
20260905142819 26 329 0.0 0.0 0.00 0.00 0.00 73 1016.2
20260905142737 26 342 0.0 0.0 0.00 0.00 0.00 73 1016.3
20260905142624 26 318 0.0 0.0 0.00 0.00 0.00 74 1016.1
20260905142540 26 320 0.0 0.0 0.00 0.00 0.00 73 1016.1
20260905142441 26 345 0.0 0.0 0.00 0.00 0.00 74 1016.1
20260905142317 26 349 0.0 0.0 0.00 0.00 0.00 74 1016.1
20260905142237 26 348 0.0 0.0 0.00 0.00 0.00 75 1016.2
20260905142141 26 360 0.0 0.0 0.00 0.00 0.00 75 1016.2
20260905142046 26 38 0.0 0.0 0.00 0.00 0.00 76 1016.2
20260905141936 26 350 0.0 0.0 0.00 0.00 0.00 77 1016.1
20260905141836 26 350 0.0 0.0 0.00 0.00 0.00 77 1016.2
20260905141729 26 336 0.0 0.0 0.00 0.00 0.00 77 1016.0
20260905141654 26 321 0.0 0.0 0.00 0.00 0.00 78 1016.1
20260905141633 26 321 0.0 0.0 0.00 0.00 0.00 78 1016.1
20260905141431 25 319 0.0 0.0 0.00 0.00 0.00 79 1016.1
20260905141342 25 319 0.0 0.0 0.00 0.00 0.00 79 1016.1
20260905141231 25 340 0.0 0.0 0.00 0.00 0.00 80 1016.2
20260905141136 25 340 0.0 0.0 0.00 0.00 0.00 80 1016.2
20260905141037 25 340 0.0 0.0 0.00 0.00 0.00 81 1016.2
20260905140930 25 340 0.0 0.0 0.00 0.00 0.00 82 1016.3
20260905140845 25 323 0.0 0.0 0.00 0.00 0.00 82 1016.3
20260905140737 25 323 0.0 0.0 0.00 0.00 0.00 83 1016.3
20260905140636 25 312 0.0 0.0 0.00 0.00 0.00 83 1016.2
20260905140544 25 312 0.0 0.0 0.00 0.00 0.00 84 1016.2
20260905140427 24 312 0.0 0.0 0.00 0.00 0.00 85 1016.1
20260905140337 24 312 0.0 0.0 0.00 0.00 0.00 85 1016.1
20260905140247 24 317 0.0 0.0 0.00 0.00 0.00 86 1016.0
20260905140145 24 317 0.0 0.0 0.00 0.00 0.00 86 1016.0
20260905135934 23 317 0.0 0.0 0.00 0.00 0.00 87 1016.1
20260905135829 23 315 0.0 0.0 0.00 0.00 0.00 87 1016.1
20260905135734 23 311 0.0 0.0 0.00 0.00 0.00 87 1016.1
20260905135625 23 311 0.0 0.0 0.00 0.00 0.00 87 1016.1
20260905135527 23 311 0.0 0.0 0.00 0.00 0.00 88 1016.1
20260905135434 23 311 0.0 0.0 0.00 0.00 0.00 88 1016.1
20260905135347 23 311 0.0 0.0 0.00 0.00 0.00 88 1016.3
20260905135237 23 311 0.0 0.0 0.00 0.00 0.00 89 1016.3
20260905135136 23 332 0.0 0.0 0.00 0.00 0.00 89 1016.2
20260905135028 23 332 0.0 0.0 0.00 0.00 0.00 89 1016.3
20260905134927 23 332 0.0 0.0 0.00 0.00 0.00 89 1016.2
20260905134850 23 332 0.0 0.0 0.00 0.00 0.00 89 1016.2
20260905134736 22 332 0.0 0.0 0.00 0.00 0.00 89 1016.2
20260905134636 22 332 0.0 0.0 0.00 0.00 0.00 89 1016.3
20260905134633 22 332 0.0 0.0 0.00 0.00 0.00 90 1016.2
20260905134436 22 334 0.0 0.0 0.00 0.00 0.00 90 1016.1
20260905134335 22 334 0.0 0.0 0.00 0.00 0.00 90 1016.1
20260905134243 22 334 0.0 0.0 0.00 0.00 0.00 90 1016.1
20260905134137 22 334 0.0 0.0 0.00 0.00 0.00 90 1016.2
20260905134047 22 334 0.0 0.0 0.00 0.00 0.00 90 1016.2
20260905133919 22 334 0.0 0.0 0.00 0.00 0.00 90 1016.2
20260905133820 22 331 0.0 0.0 0.00 0.00 0.00 90 1016.2
20260905133746 22 334 0.0 0.0 0.00 0.00 0.00 90 1016.1
20260905133643 22 337 0.0 0.0 0.00 0.00 0.00 90 1016.1
20260905133532 22 332 0.0 0.0 0.00 0.00 0.00 91 1016.1
20260905133419 22 333 0.0 0.0 0.00 0.00 0.00 91 1016.1
20260905133342 22 360 0.0 0.0 0.00 0.00 0.00 91 1016.3
20260905133236 22 335 0.0 0.0 0.00 0.00 0.00 91 1016.3
20260905133136 22 335 0.0 0.0 0.00 0.00 0.00 91 1016.2
20260905132941 22 335 0.0 0.0 0.00 0.00 0.00 91 1016.3
20260905132841 22 322 0.0 0.0 0.00 0.00 0.00 91 1016.3
20260905132736 22 322 0.0 0.0 0.00 0.00 0.00 91 1016.3
20260905132636 22 323 0.0 0.0 0.00 0.00 0.00 91 1016.3
20260905132527 21 342 0.0 0.0 0.00 0.00 0.00 91 1016.3
20260905132429 21 350 0.0 0.0 0.00 0.00 0.00 91 1016.4
20260905132325 21 355 0.0 0.0 0.00 0.00 0.00 91 1016.4
20260905132241 21 344 0.0 0.0 0.00 0.00 0.00 91 1016.3
20260905132140 21 344 0.0 0.0 0.00 0.00 0.00 91 1016.3
20260905132027 21 348 0.0 0.0 0.00 0.00 0.00 91 1016.4
20260905131927 21 360 0.0 0.0 0.00 0.00 0.00 92 1016.3
20260905131830 21 360 0.0 0.0 0.00 0.00 0.00 92 1016.3
20260905131734 21 5 0.0 0.0 0.00 0.00 0.00 91 1016.2
20260905131656 21 5 0.0 0.0 0.00 0.00 0.00 91 1016.2
20260905131629 21 5 0.0 0.0 0.00 0.00 0.00 91 1016.3
20260905131432 21 5 0.0 0.0 0.00 0.00 0.00 91 1016.2
20260905131341 21 18 0.0 0.0 0.00 0.00 0.00 91 1016.3
20260905131230 21 22 0.0 0.0 0.00 0.00 0.00 91 1016.3
20260905131130 21 22 0.0 0.0 0.00 0.00 0.00 91 1016.3
20260905131024 21 24 0.0 0.0 0.00 0.00 0.00 91 1016.3
20260905130933 21 325 0.0 0.0 0.00 0.00 0.00 91 1016.3
20260905130818 21 346 0.0 0.0 0.00 0.00 0.00 91 1016.3
20260905130725 21 345 0.0 0.0 0.00 0.00 0.00 91 1016.3
20260905130644 21 347 0.0 0.0 0.00 0.00 0.00 91 1016.3
20260905130540 21 333 0.0 0.0 0.00 0.00 0.00 91 1016.3
20260905130442 21 327 0.0 0.0 0.00 0.00 0.00 91 1016.3
20260905130348 21 336 0.0 0.0 0.00 0.00 0.00 91 1016.3
20260905130236 21 330 0.0 0.0 0.00 0.00 0.00 91 1016.3
20260905130149 21 342 0.0 0.0 0.00 0.00 0.00 91 1016.3
20260905125926 21 314 0.0 0.0 0.00 0.00 0.00 91 1016.4
20260905125827 21 336 0.0 0.0 0.00 0.00 0.00 91 1016.4
20260905125747 21 340 0.0 0.0 0.00 0.00 0.00 91 1016.4
20260905125635 21 340 0.0 0.0 0.00 0.00 0.00 91 1016.4
20260905125525 21 340 0.0 0.0 0.00 0.00 0.00 91 1016.4
20260905125424 21 340 0.0 0.0 0.00 0.00 0.00 91 1016.3
20260905125336 21 340 0.0 0.0 0.00 0.00 0.00 91 1016.3
20260905125224 21 340 0.0 0.0 0.00 0.00 0.00 91 1016.3
20260905125141 21 333 0.0 0.0 0.00 0.00 0.00 91 1016.3
20260905125040 21 333 0.0 0.0 0.00 0.00 0.00 91 1016.3
20260905124926 21 11 0.0 0.0 0.00 0.00 0.00 91 1016.3
20260905124830 21 344 0.0 0.0 0.00 0.00 0.00 91 1016.3
20260905124730 20 24 0.0 0.0 0.00 0.00 0.00 91 1016.3
20260905124652 20 14 0.0 0.0 0.00 0.00 0.00 91 1016.4
20260905124626 20 355 0.0 0.0 0.00 0.00 0.00 91 1016.3
20260905124434 20 338 0.0 0.0 0.00 0.00 0.00 91 1016.3
20260905124341 20 355 0.0 0.0 0.00 0.00 0.00 91 1016.3
20260905124241 20 355 0.0 0.0 0.00 0.00 0.00 91 1016.3
20260905124128 20 350 0.0 0.0 0.00 0.00 0.00 91 1016.2
20260905124034 20 355 0.0 0.0 0.00 0.00 0.00 91 1016.2
20260905123940 20 355 0.0 0.0 0.00 0.00 0.00 91 1016.3
20260905123841 20 342 0.0 0.0 0.00 0.00 0.00 91 1016.3
20260905123736 20 342 0.0 0.0 0.00 0.00 0.00 91 1016.2
20260905123646 20 344 0.0 0.0 0.00 0.00 0.00 91 1016.3
20260905123540 20 344 0.0 0.0 0.00 0.00 0.00 91 1016.3
20260905123436 20 344 0.0 0.0 0.00 0.00 0.00 91 1016.2
20260905123329 20 344 0.0 0.0 0.00 0.00 0.00 91 1016.2
20260905123241 20 342 0.0 0.0 0.00 0.00 0.00 91 1016.3
20260905123149 20 338 0.0 0.0 0.00 0.00 0.00 90 1016.2
20260905123116 20 338 0.0 0.0 0.00 0.00 0.00 90 1016.2
20260905122940 20 343 0.0 0.0 0.00 0.00 0.00 90 1016.2
20260905122827 20 340 0.0 0.0 0.00 0.00 0.00 90 1016.1
20260905122736 20 340 0.0 0.0 0.00 0.00 0.00 90 1016.2
20260905122630 20 340 0.0 0.0 0.00 0.00 0.00 90 1016.2
20260905122541 20 340 0.0 0.0 0.00 0.00 0.00 90 1016.2
20260905122442 20 340 0.0 0.0 0.00 0.00 0.00 90 1016.1
20260905122323 20 336 0.0 0.0 0.00 0.00 0.00 90 1016.1
20260905122240 20 336 0.0 0.0 0.00 0.00 0.00 90 1016.1
20260905122125 20 336 0.0 0.0 0.00 0.00 0.00 90 1016.2
20260905122025 20 351 0.0 0.0 0.00 0.00 0.00 90 1016.1
20260905121918 20 336 0.0 0.0 0.00 0.00 0.00 90 1016.1
20260905121733 20 346 0.0 0.0 0.00 0.00 0.00 90 1016.0
20260905121654 20 25 0.0 0.0 0.00 0.00 0.00 90 1016.1
20260905121617 20 25 0.0 0.0 0.00 0.00 0.00 90 1016.0
20260905121435 20 52 0.0 0.0 0.00 0.00 0.00 90 1016.0
20260905121331 20 346 0.0 0.0 0.00 0.00 0.00 90 1015.9
20260905121242 20 13 0.0 0.0 0.00 0.00 0.00 90 1015.9
20260905121140 20 355 0.0 0.0 0.00 0.00 0.00 90 1015.9
20260905121028 20 51 0.0 0.0 0.00 0.00 0.00 90 1015.9
20260905120930 20 331 0.0 0.0 0.00 0.00 0.00 90 1015.9
20260905120843 20 344 0.0 0.0 0.00 0.00 0.00 90 1015.9
20260905120726 20 344 0.0 0.0 0.00 0.00 0.00 90 1015.9
20260905120642 20 338 0.0 0.0 0.00 0.00 0.00 90 1015.9
20260905120537 20 338 0.0 0.0 0.00 0.00 0.00 90 1015.9
20260905120441 20 340 0.0 0.0 0.00 0.00 0.00 90 1015.9
20260905120326 20 338 0.0 0.0 0.00 0.00 0.00 90 1015.9
20260905120235 20 338 0.0 0.0 0.00 0.00 0.00 90 1015.9
20260905120126 20 337 0.0 0.0 0.00 0.00 0.00 90 1015.8
20260905115936 20 338 0.0 0.0 0.00 0.00 0.00 90 1015.8
20260905115835 20 325 0.0 0.0 0.00 0.00 0.00 90 1015.9
20260905115727 20 339 0.0 0.0 0.00 0.00 0.00 90 1015.8
20260905115646 20 333 0.0 0.0 0.00 0.00 0.00 90 1015.9
20260905115527 20 327 0.0 0.0 0.00 0.00 0.00 90 1015.8
20260905115424 20 327 0.0 0.0 0.00 0.00 0.00 90 1015.8
20260905115324 20 327 0.0 0.0 0.00 0.00 0.00 90 1015.8
20260905115235 20 327 0.0 0.0 0.00 0.00 0.00 90 1015.8
20260905115121 20 329 0.0 0.0 0.00 0.00 0.00 90 1015.8
20260905115043 20 349 0.0 0.0 0.00 0.00 0.00 90 1015.8
20260905114924 20 340 0.0 0.0 0.00 0.00 0.00 90 1015.8
20260905114828 20 5 0.0 0.0 0.00 0.00 0.00 90 1015.8
20260905114744 20 346 0.0 0.0 0.00 0.00 0.00 90 1015.8
20260905114643 20 346 0.0 0.0 0.00 0.00 0.00 90 1015.8
20260905114425 20 346 0.0 0.0 0.00 0.00 0.00 90 1015.8
20260905114327 20 345 0.0 0.0 0.00 0.00 0.00 89 1015.8
20260905114234 20 346 0.0 0.0 0.00 0.00 0.00 89 1015.7
20260905114135 20 346 0.0 0.0 0.00 0.00 0.00 89 1015.8
20260905114039 20 346 0.0 0.0 0.00 0.00 0.00 89 1015.7
20260905113947 20 346 0.0 0.0 0.00 0.00 0.00 89 1015.7
20260905113848 20 346 0.0 0.0 0.00 0.00 0.00 89 1015.6
20260905113735 20 346 0.0 0.0 0.00 0.00 0.00 89 1015.8
20260905113647 20 345 0.0 0.0 0.00 0.00 0.00 89 1015.7
20260905113531 20 345 0.0 0.0 0.00 0.00 0.00 89 1015.6
20260905113430 20 345 0.0 0.0 0.00 0.00 0.00 89 1015.6
20260905113327 20 345 0.0 0.0 0.00 0.00 0.00 89 1015.6
20260905113241 20 345 0.0 0.0 0.00 0.00 0.00 89 1015.7
20260905113200 20 345 0.0 0.0 0.00 0.00 0.00 89 1015.6
20260905113157 20 345 0.0 0.0 0.00 0.00 0.00 89 1015.6
20260905112929 20 345 0.0 0.0 0.00 0.00 0.00 89 1015.6
20260905112837 20 346 0.0 0.0 0.00 0.00 0.00 89 1015.6
20260905112724 20 345 0.0 0.0 0.00 0.00 0.00 89 1015.5
20260905112636 20 345 0.0 0.0 0.00 0.00 0.00 89 1015.6
20260905112526 20 345 0.0 0.0 0.00 0.00 0.00 89 1015.5
20260905112434 20 346 0.0 0.0 0.00 0.00 0.00 89 1015.5
20260905112326 20 345 0.0 0.0 0.00 0.00 0.00 89 1015.6
20260905112245 20 345 0.0 0.0 0.00 0.00 0.00 89 1015.5
20260905112127 20 346 0.0 0.0 0.00 0.00 0.00 89 1015.5
20260905112047 20 346 0.0 0.0 0.00 0.00 0.00 89 1015.5
20260905111935 20 345 0.0 0.0 0.00 0.00 0.00 89 1015.5
20260905111820 20 345 0.0 0.0 0.00 0.00 0.00 89 1015.5
20260905111727 20 345 0.0 0.0 0.00 0.00 0.00 89 1015.5
20260905111647 20 345 0.0 0.0 0.00 0.00 0.00 89 1015.5
20260905111448 20 345 0.0 0.0 0.00 0.00 0.00 89 1015.4
20260905111336 20 344 0.0 0.0 0.00 0.00 0.00 89 1015.4
20260905111242 20 338 0.0 0.0 0.00 0.00 0.00 89 1015.4
20260905111147 20 340 0.0 0.0 0.00 0.00 0.00 89 1015.4
20260905111031 20 340 0.0 0.0 0.00 0.00 0.00 89 1015.3
20260905110920 20 340 0.0 0.0 0.00 0.00 0.00 89 1015.2
20260905110836 20 338 0.0 0.0 0.00 0.00 0.00 89 1015.3
20260905110726 20 342 0.0 0.0 0.00 0.00 0.00 89 1015.3
20260905110639 20 342 0.0 0.0 0.00 0.00 0.00 89 1015.1
20260905110547 20 342 0.0 0.0 0.00 0.00 0.00 89 1015.1
20260905110437 20 342 0.0 0.0 0.00 0.00 0.00 89 1015.2
20260905110342 20 342 0.0 0.0 0.00 0.00 0.00 89 1015.0
20260905110256 20 342 0.0 0.0 0.00 0.00 0.00 89 1015.0
20260905110155 20 355 0.0 0.0 0.00 0.00 0.00 89 1015.0
20260905110125 20 355 0.0 0.0 0.00 0.00 0.00 89 1015.0
20260905105940 20 355 0.0 0.0 0.00 0.00 0.00 89 1015.0
20260905105843 20 23 0.0 0.0 0.00 0.00 0.00 89 1015.0
20260905105737 20 23 0.0 0.0 0.00 0.00 0.00 89 1015.0
20260905105637 20 23 0.0 0.0 0.00 0.00 0.00 88 1015.1
20260905105520 20 23 0.0 0.0 0.00 0.00 0.00 88 1015.0
20260905105430 20 23 0.0 0.0 0.00 0.00 0.00 88 1014.9
20260905105337 20 23 0.0 0.0 0.00 0.00 0.00 88 1015.0
20260905105237 21 23 0.0 0.0 0.00 0.00 0.00 88 1014.9
20260905105128 21 23 0.0 0.0 0.00 0.00 0.00 88 1015.0
20260905105031 21 23 0.0 0.0 0.00 0.00 0.00 88 1015.0
20260905104948 21 23 0.0 0.0 0.00 0.00 0.00 88 1015.0
20260905104829 21 15 0.0 0.0 0.00 0.00 0.00 88 1015.0
20260905104727 21 17 0.0 0.0 0.00 0.00 0.00 88 1015.0
20260905104629 21 17 0.0 0.0 0.00 0.00 0.00 88 1015.1
20260905104435 21 355 0.0 0.0 0.00 0.00 0.00 89 1015.0
20260905104324 21 336 0.0 0.0 0.00 0.00 0.00 89 1015.0
20260905104229 21 336 0.0 0.0 0.00 0.00 0.00 89 1015.0
20260905104119 21 350 0.0 0.0 0.00 0.00 0.00 88 1015.0
20260905104039 21 336 0.0 0.0 0.00 0.00 0.00 88 1015.0
20260905103935 21 296 0.0 0.0 0.00 0.00 0.00 88 1014.9
20260905103835 21 276 0.0 0.0 0.00 0.00 0.00 88 1014.9
20260905103730 21 276 0.0 0.0 0.00 0.00 0.00 88 1014.9
20260905103629 21 276 0.0 0.0 0.00 0.00 0.00 88 1014.9
20260905103523 21 276 0.0 0.0 0.00 0.00 0.00 88 1014.9
20260905103445 21 276 0.0 0.0 0.00 0.00 0.00 88 1014.9
20260905103325 21 276 0.0 0.0 0.00 0.00 0.00 88 1014.9
20260905103237 21 276 0.0 0.0 0.00 0.00 0.00 88 1014.9
20260905103220 21 276 0.0 0.0 0.00 0.00 0.00 88 1014.8
20260905103121 21 276 0.0 0.0 0.00 0.00 0.00 88 1014.9
20260905102923 21 276 0.0 0.0 0.00 0.00 0.00 88 1014.9
20260905102840 21 276 0.0 0.0 0.00 0.00 0.00 88 1014.8
20260905102736 21 276 0.0 0.0 0.00 0.00 0.00 88 1014.9
20260905102630 21 276 0.0 0.0 0.00 0.00 0.00 88 1014.8
20260905102536 21 276 0.0 0.0 0.00 0.00 0.00 88 1014.8
20260905102434 21 276 0.0 0.0 0.00 0.00 0.00 88 1014.8
20260905102325 21 276 0.0 0.0 0.00 0.00 0.00 88 1014.7
20260905102241 21 144 0.0 0.0 0.00 0.00 0.00 88 1014.7
20260905102145 21 144 0.0 0.0 0.00 0.00 0.00 88 1014.7
20260905102024 21 144 0.0 0.0 0.00 0.00 0.00 88 1014.7
20260905101923 21 144 0.0 0.0 0.00 0.00 0.00 88 1014.7
20260905101822 21 144 0.0 0.0 0.00 0.00 0.00 88 1014.7
20260905101736 21 144 0.0 0.0 0.00 0.00 0.00 88 1014.7
20260905101657 21 144 0.0 0.0 0.00 0.00 0.00 88 1014.7
20260905101441 21 144 0.0 0.0 0.00 0.00 0.00 88 1014.7
20260905101336 21 144 0.0 0.0 0.00 0.00 0.00 88 1014.7
20260905101241 21 144 0.0 0.0 0.00 0.00 0.00 88 1014.7
20260905101141 21 144 0.0 0.0 0.00 0.00 0.00 88 1014.7
20260905101044 21 144 0.0 0.0 0.00 0.00 0.00 88 1014.6
20260905100942 21 144 0.0 0.0 0.00 0.00 0.00 88 1014.7
20260905100839 21 144 0.0 0.0 0.00 0.00 0.00 88 1014.7
20260905100736 21 144 0.0 0.0 0.00 0.00 0.00 88 1014.7
20260905100642 21 144 0.0 0.0 0.00 0.00 0.00 88 1014.6
20260905100540 21 144 0.0 0.0 0.00 0.00 0.00 88 1014.7
20260905100430 21 144 0.0 0.0 0.00 0.00 0.00 88 1014.7
20260905100331 21 144 0.0 0.0 0.00 0.00 0.00 88 1014.7
20260905100259 21 144 0.0 0.0 0.00 0.00 0.00 88 1014.7
20260905100219 21 144 0.0 0.0 0.00 0.00 0.00 88 1014.6
20260905095936 21 144 0.0 0.0 0.00 0.00 0.00 88 1014.7
20260905095827 21 144 0.0 0.0 0.00 0.00 0.00 88 1014.8
20260905095724 21 144 0.0 0.0 0.00 0.00 0.00 88 1014.7
20260905095643 21 144 0.0 0.0 0.00 0.00 0.00 88 1014.7
20260905095541 21 144 0.0 0.0 0.00 0.00 0.00 88 1014.7
20260905095429 21 144 0.0 0.0 0.00 0.00 0.00 88 1014.7
20260905095324 21 144 0.0 0.0 0.00 0.00 0.00 88 1014.6
20260905095237 21 144 0.0 0.0 0.00 0.00 0.00 88 1014.7
20260905095120 21 144 0.0 0.0 0.00 0.00 0.00 88 1014.6
20260905095027 21 144 0.0 0.0 0.00 0.00 0.00 88 1014.5
20260905094947 21 144 0.0 0.0 0.00 0.00 0.00 88 1014.6
20260905094835 21 144 0.0 0.0 0.00 0.00 0.00 88 1014.6
20260905094736 21 144 0.0 0.0 0.00 0.00 0.00 88 1014.6
20260905094700 21 144 0.0 0.0 0.00 0.00 0.00 88 1014.6
20260905094433 21 144 0.0 0.0 0.00 0.00 0.00 88 1014.6
20260905094336 21 144 0.0 0.0 0.00 0.00 0.00 88 1014.6
20260905094236 21 144 0.0 0.0 0.00 0.00 0.00 88 1014.7
20260905094133 21 144 0.0 0.0 0.00 0.00 0.00 88 1014.6
20260905094044 21 145 0.0 0.0 0.00 0.00 0.00 88 1014.7
20260905093933 21 144 0.0 0.0 0.00 0.00 0.00 88 1014.7
20260905093844 21 145 0.0 0.0 0.00 0.00 0.00 88 1014.7
20260905093721 21 146 0.0 0.0 0.00 0.00 0.00 88 1014.7
20260905093644 21 146 0.0 0.0 0.00 0.00 0.00 88 1014.7
20260905093528 21 146 0.0 0.0 0.00 0.00 0.00 88 1014.7
20260905093440 21 146 0.0 0.0 0.00 0.00 0.00 88 1014.7
20260905093341 21 145 0.0 0.0 0.00 0.00 0.00 88 1014.7
20260905093241 21 145 0.0 0.0 0.00 0.00 0.00 88 1014.8
20260905093206 21 146 0.0 0.0 0.00 0.00 0.00 88 1014.7
20260905093109 21 146 0.0 0.0 0.00 0.00 0.00 88 1014.7
20260905092931 21 146 0.0 0.0 0.00 0.00 0.00 88 1014.8
20260905092822 21 146 0.0 0.0 0.00 0.00 0.00 88 1014.8
20260905092735 21 146 0.0 0.0 0.00 0.00 0.00 88 1014.8
20260905092632 21 146 0.0 0.0 0.00 0.00 0.00 88 1014.8
20260905092538 21 146 0.0 0.0 0.00 0.00 0.00 88 1014.9
20260905092420 21 146 0.0 0.0 0.00 0.00 0.00 88 1014.9
20260905092325 21 146 0.0 0.0 0.00 0.00 0.00 88 1014.8
20260905092224 21 146 0.0 0.0 0.00 0.00 0.00 88 1014.8
20260905092127 21 146 0.0 0.0 0.00 0.00 0.00 88 1014.8
20260905092036 21 146 0.0 0.0 0.00 0.00 0.00 88 1014.9
20260905091943 21 146 0.0 0.0 0.00 0.00 0.00 88 1014.9
20260905091846 21 146 0.0 0.0 0.00 0.00 0.00 88 1014.8
20260905091736 21 146 0.0 0.0 0.00 0.00 0.00 88 1014.8
20260905091644 21 146 0.0 0.0 0.00 0.00 0.00 88 1014.9
20260905091604 21 146 0.0 0.0 0.00 0.00 0.00 87 1014.8
20260905091446 21 146 0.0 0.0 0.00 0.00 0.00 88 1014.9
20260905091322 21 146 0.0 0.0 0.00 0.00 0.00 88 1014.9
20260905091241 21 146 0.0 0.0 0.00 0.00 0.00 87 1014.9
20260905091141 21 146 0.0 0.0 0.00 0.00 0.00 87 1014.9
20260905091044 21 145 0.0 0.0 0.00 0.00 0.00 87 1014.9
20260905090924 21 145 0.0 0.0 0.00 0.00 0.00 88 1014.9
20260905090840 21 145 0.0 0.0 0.00 0.00 0.00 88 1014.9
20260905090737 21 145 0.0 0.0 0.00 0.00 0.00 87 1014.9
20260905090624 21 146 0.0 0.0 0.00 0.00 0.00 88 1014.9
20260905090527 21 146 0.0 0.0 0.00 0.00 0.00 87 1014.9
20260905090427 21 146 0.0 0.0 0.00 0.00 0.00 87 1014.9
20260905090324 21 146 0.0 0.0 0.00 0.00 0.00 87 1014.9
20260905090258 21 146 0.0 0.0 0.00 0.00 0.00 87 1014.9
20260905090222 21 146 0.0 0.0 0.00 0.00 0.00 87 1015.0
20260905090135 21 146 0.0 0.0 0.00 0.00 0.00 87 1014.9
20260905085936 21 146 0.0 0.0 0.00 0.00 0.00 87 1014.9
20260905085822 21 146 0.0 0.0 0.00 0.00 0.00 87 1014.9
20260905085729 21 146 0.0 0.0 0.00 0.00 0.00 87 1015.0
20260905085629 21 146 0.0 0.0 0.00 0.00 0.00 87 1014.9
20260905085525 21 146 0.0 0.0 0.00 0.00 0.00 87 1015.0
20260905085425 21 146 0.0 0.0 0.00 0.00 0.00 87 1015.0
20260905085340 21 146 0.0 0.0 0.00 0.00 0.00 87 1015.0
20260905085230 21 146 0.0 0.0 0.00 0.00 0.00 87 1015.1
20260905085127 21 146 0.0 0.0 0.00 0.00 0.00 88 1015.0
20260905085024 21 146 0.0 0.0 0.00 0.00 0.00 88 1015.1
20260905084925 21 146 0.0 0.0 0.00 0.00 0.00 88 1015.1
20260905084829 21 146 0.0 0.0 0.00 0.00 0.00 88 1015.1
20260905084730 21 146 0.0 0.0 0.00 0.00 0.00 87 1015.1
20260905084715 21 146 0.0 0.0 0.00 0.00 0.00 87 1015.1
20260905084436 21 146 0.0 0.0 0.00 0.00 0.00 88 1015.1
20260905084347 21 146 0.0 0.0 0.00 0.00 0.00 87 1015.1
20260905084232 21 5 0.0 0.0 0.00 0.00 0.00 88 1015.1
20260905084124 21 5 0.0 0.0 0.00 0.00 0.00 87 1015.1
20260905084021 21 5 0.0 0.0 0.00 0.00 0.00 87 1015.1
20260905083947 21 5 0.0 0.0 0.00 0.00 0.00 87 1015.1
20260905083835 21 5 0.0 0.0 0.00 0.00 0.00 87 1015.1
20260905083733 21 5 0.0 0.0 0.00 0.00 0.00 87 1015.1
20260905083619 21 5 0.0 0.0 0.00 0.00 0.00 87 1015.1
20260905083550 21 5 0.0 0.0 0.00 0.00 0.00 87 1015.1
20260905083424 21 5 0.0 0.0 0.00 0.00 0.00 87 1015.1
20260905083335 21 5 0.0 0.0 0.00 0.00 0.00 87 1015.1
20260905083236 21 5 0.0 0.0 0.00 0.00 0.00 87 1015.1
20260905083135 21 5 0.0 0.0 0.00 0.00 0.00 87 1015.1
20260905082946 21 5 0.0 0.0 0.00 0.00 0.00 87 1015.2
20260905082837 21 5 0.0 0.0 0.00 0.00 0.00 87 1015.3
20260905082736 21 5 0.0 0.0 0.00 0.00 0.00 87 1015.2
20260905082637 21 5 0.0 0.0 0.00 0.00 0.00 87 1015.2
20260905082536 21 5 0.0 0.0 0.00 0.00 0.00 87 1015.2
20260905082429 21 5 0.0 0.0 0.00 0.00 0.00 87 1015.2
20260905082321 21 5 0.0 0.0 0.00 0.00 0.00 87 1015.2
20260905082246 21 5 0.0 0.0 0.00 0.00 0.00 87 1015.2
20260905082136 21 5 0.0 0.0 0.00 0.00 0.00 87 1015.2
20260905082043 21 5 0.0 0.0 0.00 0.00 0.00 87 1015.2
20260905081936 21 5 0.0 0.0 0.00 0.00 0.00 87 1015.3
20260905081838 21 5 0.0 0.0 0.00 0.00 0.00 88 1015.3
20260905081748 21 5 0.0 0.0 0.00 0.00 0.00 87 1015.3
20260905081648 21 5 0.0 0.0 0.00 0.00 0.00 88 1015.3
20260905081620 21 5 0.0 0.0 0.00 0.00 0.00 88 1015.3
20260905081435 21 12 0.0 0.0 0.00 0.00 0.00 87 1015.3
20260905081335 21 12 0.0 0.0 0.00 0.00 0.00 87 1015.3
20260905081229 21 12 0.0 0.0 0.00 0.00 0.00 87 1015.3
20260905081124 21 12 0.0 0.0 0.00 0.00 0.00 88 1015.3
20260905081027 21 12 0.0 0.0 0.00 0.00 0.00 87 1015.3
20260905080946 21 12 0.0 0.0 0.00 0.00 0.00 87 1015.3
20260905080835 21 12 0.0 0.0 0.00 0.00 0.00 87 1015.3
20260905080723 21 12 0.0 0.0 0.00 0.00 0.00 87 1015.4
20260905080633 21 12 0.0 0.0 0.00 0.00 0.00 87 1015.4
20260905080524 21 12 0.0 0.0 0.00 0.00 0.00 87 1015.4
20260905080435 21 12 0.0 0.0 0.00 0.00 0.00 87 1015.4
20260905080325 21 12 0.0 0.0 0.00 0.00 0.00 87 1015.4
20260905080248 21 19 0.0 0.0 0.00 0.00 0.00 87 1015.4
20260905080148 21 360 0.0 0.0 0.00 0.00 0.00 87 1015.4
20260905080145 21 360 0.0 0.0 0.00 0.00 0.00 87 1015.4
20260905075928 21 355 0.0 0.0 0.00 0.00 0.00 87 1015.4
20260905075836 21 355 0.0 0.0 0.00 0.00 0.00 87 1015.4
20260905075726 21 10 0.0 0.0 0.00 0.00 0.00 87 1015.4
20260905075629 21 329 0.0 0.0 0.00 0.00 0.00 87 1015.4
20260905075524 21 350 0.0 0.0 0.00 0.00 0.00 87 1015.4
20260905075432 21 350 0.0 0.0 0.00 0.00 0.00 87 1015.4
20260905075336 21 350 0.0 0.0 0.00 0.00 0.00 87 1015.4
20260905075227 21 360 0.0 0.0 0.00 0.00 0.00 87 1015.4
20260905075131 21 360 0.0 0.0 0.00 0.00 0.00 87 1015.4
20260905075031 21 19 0.0 0.0 0.00 0.00 0.00 87 1015.5
20260905074923 21 19 0.0 0.0 0.00 0.00 0.00 87 1015.5
20260905074841 21 15 0.0 0.0 0.00 0.00 0.00 87 1015.5
20260905074726 21 17 0.0 0.0 0.00 0.00 0.00 87 1015.5
20260905074717 21 15 0.0 0.0 0.00 0.00 0.00 87 1015.5
20260905074609 21 17 0.0 0.0 0.00 0.00 0.00 87 1015.5
20260905074430 21 28 0.0 0.0 0.00 0.00 0.00 87 1015.6
20260905074341 21 9 0.0 0.0 0.00 0.00 0.00 87 1015.5
20260905074241 21 14 0.0 0.0 0.00 0.00 0.00 87 1015.5
20260905074128 21 20 0.0 0.0 0.00 0.00 0.00 87 1015.5
20260905074023 21 19 0.0 0.0 0.00 0.00 0.00 87 1015.5
20260905073923 22 21 0.0 0.0 0.00 0.00 0.00 87 1015.5
20260905073825 22 30 0.0 0.0 0.00 0.00 0.00 87 1015.5
20260905073742 22 17 0.0 0.0 0.00 0.00 0.00 87 1015.5
20260905073647 22 9 0.0 0.0 0.00 0.00 0.00 87 1015.5
20260905073535 22 360 0.0 0.0 0.00 0.00 0.00 87 1015.6
20260905073424 22 5 0.0 0.0 0.00 0.00 0.00 87 1015.5
20260905073330 22 5 0.0 0.0 0.00 0.00 0.00 87 1015.6
20260905073226 22 5 0.0 0.0 0.00 0.00 0.00 87 1015.5
20260905073202 22 5 0.0 0.0 0.00 0.00 0.00 87 1015.6
20260905073124 22 15 0.0 0.0 0.00 0.00 0.00 87 1015.6
20260905072948 22 15 0.0 0.0 0.00 0.00 0.00 87 1015.6
20260905072825 22 22 0.0 0.0 0.00 0.00 0.00 87 1015.6
20260905072731 22 15 0.0 0.0 0.00 0.00 0.00 87 1015.6
20260905072636 22 15 0.0 0.0 0.00 0.00 0.00 87 1015.6
20260905072535 22 15 0.0 0.0 0.00 0.00 0.00 87 1015.6
20260905072425 22 21 0.0 0.0 0.00 0.00 0.00 87 1015.6
20260905072336 22 22 0.0 0.0 0.00 0.00 0.00 87 1015.6
20260905072248 22 355 0.0 0.0 0.00 0.00 0.00 87 1015.6
20260905072130 22 340 0.0 0.0 0.00 0.00 0.00 87 1015.6
20260905072034 22 344 0.0 0.0 0.00 0.00 0.00 87 1015.6
20260905071947 22 342 0.0 0.0 0.00 0.00 0.00 86 1015.6
20260905071837 22 349 0.0 0.0 0.00 0.00 0.00 86 1015.6
20260905071733 22 349 0.0 0.0 0.00 0.00 0.00 86 1015.6
20260905071644 22 349 0.0 0.0 0.00 0.00 0.00 86 1015.6
20260905071638 22 335 0.0 0.0 0.00 0.00 0.00 86 1015.6
20260905071444 22 345 0.0 0.0 0.00 0.00 0.00 86 1015.6
20260905071341 22 345 0.0 0.0 0.00 0.00 0.00 87 1015.6
20260905071221 22 344 0.0 0.0 0.00 0.00 0.00 86 1015.6
20260905071126 22 336 0.0 0.0 0.00 0.00 0.00 86 1015.7
20260905071029 22 336 0.0 0.0 0.00 0.00 0.00 87 1015.6
20260905070935 22 336 0.0 0.0 0.00 0.00 0.00 86 1015.7
20260905070840 22 335 0.0 0.0 0.00 0.00 0.00 86 1015.7
20260905070724 22 335 0.0 0.0 0.00 0.00 0.00 86 1015.7
20260905070640 22 335 0.0 0.0 0.00 0.00 0.00 86 1015.7
20260905070536 22 335 0.0 0.0 0.00 0.00 0.00 86 1015.6
20260905070425 22 335 0.0 0.0 0.00 0.00 0.00 86 1015.7
20260905070336 22 335 0.0 0.0 0.00 0.00 0.00 86 1015.7
20260905070248 22 335 0.0 0.0 0.00 0.00 0.00 86 1015.7
20260905070204 22 346 0.0 0.0 0.00 0.00 0.00 86 1015.6
20260905070130 22 350 0.0 0.0 0.00 0.00 0.00 86 1015.7
20260905065920 22 335 0.0 0.0 0.00 0.00 0.00 86 1015.7
20260905065734 22 340 0.0 0.0 0.00 0.00 0.00 86 1015.7
20260905065642 22 348 0.0 0.0 0.00 0.00 0.00 86 1015.8
20260905065637 22 355 0.0 0.0 0.00 0.00 0.00 86 1015.8
20260905065420 22 12 0.0 0.0 0.00 0.00 0.00 86 1015.8
20260905065327 22 48 0.0 0.0 0.00 0.00 0.00 86 1015.8
20260905065236 22 360 0.0 0.0 0.00 0.00 0.00 86 1015.8
20260905065130 22 360 0.0 0.0 0.00 0.00 0.00 86 1015.8
20260905065019 22 339 0.0 0.0 0.00 0.00 0.00 86 1015.8
20260905064936 22 339 0.0 0.0 0.00 0.00 0.00 86 1015.8
20260905064841 22 341 0.0 0.0 0.00 0.00 0.00 86 1015.8
20260905064733 22 350 0.0 0.0 0.00 0.00 0.00 86 1015.9
20260905064718 22 355 0.0 0.0 0.00 0.00 0.00 86 1015.9
20260905064627 22 17 0.0 0.0 0.00 0.00 0.00 86 1015.9
20260905064436 22 10 0.0 0.0 0.00 0.00 0.00 86 1015.9
20260905064341 22 16 0.0 0.0 0.00 0.00 0.00 86 1015.9
20260905064236 22 17 0.0 0.0 0.00 0.00 0.00 86 1015.8
20260905064122 22 15 0.0 0.0 0.00 0.00 0.00 85 1015.9
20260905064026 22 15 0.0 0.0 0.00 0.00 0.00 85 1015.8
20260905063936 22 19 0.0 0.0 0.00 0.00 0.00 85 1015.8
20260905063840 22 23 0.0 0.0 0.00 0.00 0.00 85 1015.8
20260905063723 22 343 0.0 0.0 0.00 0.00 0.00 85 1015.8
20260905063636 22 343 0.0 0.0 0.00 0.00 0.00 85 1015.7
20260905063518 22 341 0.0 0.0 0.00 0.00 0.00 85 1015.8
20260905063418 22 348 0.0 0.0 0.00 0.00 0.00 85 1015.8
20260905063331 22 11 0.0 0.0 0.00 0.00 0.00 85 1015.8
20260905063221 22 11 0.0 0.0 0.00 0.00 0.00 85 1015.8
20260905063216 22 340 0.0 0.0 0.00 0.00 0.00 85 1015.9
20260905063102 22 355 0.0 0.0 0.00 0.00 0.00 85 1015.9
20260905062940 22 25 0.0 0.0 0.00 0.00 0.00 85 1015.9
20260905062838 22 16 0.0 0.0 0.00 0.00 0.00 85 1015.9
20260905062722 22 9 0.0 0.0 0.00 0.00 0.00 85 1015.8
20260905062631 22 5 0.0 0.0 0.00 0.00 0.00 85 1015.9
20260905062528 22 22 0.0 0.0 0.00 0.00 0.00 85 1015.8
20260905062427 22 15 0.0 0.0 0.00 0.00 0.00 85 1015.9
20260905062325 22 13 0.0 0.0 0.00 0.00 0.00 85 1015.9
20260905062223 22 15 0.0 0.0 0.00 0.00 0.00 85 1015.9
20260905062117 22 15 0.0 0.0 0.00 0.00 0.00 85 1015.9
20260905062024 22 15 0.0 0.0 0.00 0.00 0.00 85 1015.9
20260905061920 22 16 0.0 0.0 0.00 0.00 0.00 85 1015.9
20260905061841 22 30 0.0 0.0 0.00 0.00 0.00 84 1015.9
20260905061718 22 28 0.0 0.0 0.00 0.00 0.00 84 1015.9
20260905061629 22 5 0.0 0.0 0.00 0.00 0.00 84 1016.0
20260905061626 22 9 0.0 0.0 0.00 0.00 0.00 84 1015.9
20260905061437 22 13 0.0 0.0 0.00 0.00 0.00 84 1016.0
20260905061322 22 26 0.0 0.0 0.00 0.00 0.00 84 1016.0
20260905061221 22 344 0.0 0.0 0.00 0.00 0.00 84 1016.0
20260905061116 22 348 0.0 0.0 0.00 0.00 0.00 84 1016.0
20260905061040 22 347 0.0 0.0 0.00 0.00 0.00 84 1016.0